Time,TemperatureF,DewpointF,PressureIn,WindDirection,WindDirectionDegrees,WindSpeedMPH,WindSpeedGustMPH,Humidity,HourlyPrecipIn,Conditions,Clouds,dailyrainin,SolarRadiationWatts/m^2,SoftwareType,DateUTC
2013-04-27 00:01:00,48.1,45.3,30.14,South,189,2.0,3.0,90,0.00,,,0.00,0,Wunderground v.1.15,2013-04-27 05:01:00,
2013-04-27 00:02:00,48.1,45.3,30.14,South,182,4.0,4.0,90,0.00,,,0.00,0,Wunderground v.1.15,2013-04-27 05:02:00,
2013-04-27 00:06:00,48.1,45.3,30.14,SSW,194,2.0,4.0,90,0.00,,,0.00,0,Wunderground v.1.15,2013-04-27 05:06:00,
2013-04-27 00:07:00,48.1,45.3,30.14,SSW,194,2.0,4.0,90,0.00,,,0.00,0,Wunderground v.1.15,2013-04-27 05:07:00,
2013-04-27 00:08:00,48.0,45.2,30.14,SSW,194,3.0,4.0,90,0.00,,,0.00,0,Wunderground v.1.15,2013-04-27 05:08:00,
2013-04-27 00:10:00,47.9,44.8,30.14,SSW,195,3.0,3.0,89,0.00,,,0.00,0,Wunderground v.1.15,2013-04-27 05:10:00,
2013-04-27 00:11:00,47.9,44.8,30.14,SSW,196,2.0,3.0,89,0.00,,,0.00,0,Wunderground v.1.15,2013-04-27 05:11:00,
2013-04-27 00:14:00,47.7,44.9,30.14,SSW,196,2.0,3.0,90,0.00,,,0.00,0,Wunderground v.1.15,2013-04-27 05:14:00,
2013-04-27 00:15:00,47.6,44.5,30.14,SSW,196,2.0,3.0,89,0.00,,,0.00,0,Wunderground v.1.15,2013-04-27 05:15:00,
2013-04-27 00:17:00,47.3,44.2,30.14,SSW,196,2.0,3.0,89,0.00,,,0.00,0,Wunderground v.1.15,2013-04-27 05:17:00,
2013-04-27 00:18:00,47.2,44.1,30.14,SSW,196,1.0,3.0,89,0.00,,,0.00,0,Wunderground v.1.15,2013-04-27 05:18:00,
2013-04-27 00:21:00,46.8,44.0,30.15,SSW,196,0.0,2.0,90,0.00,,,0.00,0,Wunderground v.1.15,2013-04-27 05:21:00,
2013-04-27 00:23:00,46.6,43.8,30.15,SSW,199,3.0,3.0,90,0.00,,,0.00,0,Wunderground v.1.15,2013-04-27 05:23:00,
2013-04-27 00:25:00,46.5,44.0,30.16,WNW,298,4.0,4.0,91,0.00,,,0.00,0,Wunderground v.1.15,2013-04-27 05:25:00,
2013-04-27 00:26:00,46.6,44.1,30.16,WNW,301,2.0,4.0,91,0.00,,,0.00,0,Wunderground v.1.15,2013-04-27 05:26:00,
2013-04-27 00:27:00,46.6,44.1,30.16,WNW,302,3.0,4.0,91,0.00,,,0.00,0,Wunderground v.1.15,2013-04-27 05:27:00,
2013-04-27 00:30:00,46.4,43.9,30.16,WNW,302,0.0,2.0,91,0.00,,,0.00,0,Wunderground v.1.15,2013-04-27 05:30:00,
2013-04-27 00:31:00,46.4,43.9,30.16,WNW,302,0.0,2.0,91,0.00,,,0.00,0,Wunderground v.1.15,2013-04-27 05:31:00,
2013-04-27 00:32:00,46.3,43.8,30.16,WNW,302,0.0,2.0,91,0.00,,,0.00,0,Wunderground v.1.15,2013-04-27 05:32:00,
2013-04-27 00:37:00,45.6,42.8,30.16,WNW,302,2.0,2.0,90,0.00,,,0.00,0,Wunderground v.1.15,2013-04-27 05:37:00,
2013-04-27 00:38:00,45.5,43.0,30.16,WNW,302,1.0,2.0,91,0.00,,,0.00,0,Wunderground v.1.15,2013-04-27 05:38:00,
2013-04-27 00:40:00,45.6,43.4,30.16,WNW,302,1.0,1.0,92,0.00,,,0.00,0,Wunderground v.1.15,2013-04-27 05:40:00,
2013-04-27 00:42:00,45.6,43.4,30.16,WNW,302,1.0,1.0,92,0.00,,,0.00,0,Wunderground v.1.15,2013-04-27 05:42:00,
2013-04-27 00:45:00,45.6,43.4,30.16,WNW,302,0.0,2.0,92,0.00,,,0.00,0,Wunderground v.1.15,2013-04-27 05:45:00,
2013-04-27 00:46:00,45.6,43.4,30.16,WNW,302,0.0,2.0,92,0.00,,,0.00,0,Wunderground v.1.15,2013-04-27 05:46:00,
2013-04-27 00:49:00,45.3,42.8,30.16,WNW,302,0.0,2.0,91,0.00,,,0.00,0,Wunderground v.1.15,2013-04-27 05:49:00,
2013-04-27 00:51:00,45.2,43.0,30.16,WNW,302,0.0,1.0,92,0.00,,,0.00,0,Wunderground v.1.15,2013-04-27 05:51:00,
2013-04-27 00:54:00,44.9,42.4,30.16,WNW,302,0.0,1.0,91,0.00,,,0.00,0,Wunderground v.1.15,2013-04-27 05:54:00,
2013-04-27 00:57:00,44.1,41.6,30.16,WNW,302,0.0,1.0,91,0.00,,,0.00,0,Wunderground v.1.15,2013-04-27 05:57:00,
2013-04-27 01:00:00,44.0,41.8,30.16,WNW,302,0.0,0.0,92,0.00,,,0.00,0,Wunderground v.1.15,2013-04-27 06:00:00,
2013-04-27 01:01:00,44.0,41.8,30.16,WNW,302,0.0,0.0,92,0.00,,,0.00,0,Wunderground v.1.15,2013-04-27 06:01:00,
2013-04-27 01:03:00,44.0,42.1,30.16,WNW,302,0.0,0.0,93,0.00,,,0.00,0,Wunderground v.1.15,2013-04-27 06:03:00,
2013-04-27 01:06:00,43.9,42.0,30.16,WNW,302,0.0,0.0,93,0.00,,,0.00,0,Wunderground v.1.15,2013-04-27 06:06:00,
2013-04-27 01:07:00,43.9,42.0,30.16,WNW,302,0.0,0.0,93,0.00,,,0.00,0,Wunderground v.1.15,2013-04-27 06:07:00,
2013-04-27 01:08:00,43.9,42.0,30.16,WNW,302,0.0,0.0,93,0.00,,,0.00,0,Wunderground v.1.15,2013-04-27 06:08:00,
2013-04-27 01:11:00,43.5,41.3,30.16,West,269,0.0,0.0,92,0.00,,,0.00,0,Wunderground v.1.15,2013-04-27 06:11:00,
2013-04-27 01:13:00,43.2,41.0,30.16,West,263,0.0,0.0,92,0.00,,,0.00,0,Wunderground v.1.15,2013-04-27 06:13:00,
2013-04-27 01:15:00,43.1,41.2,30.16,West,263,0.0,0.0,93,0.00,,,0.00,0,Wunderground v.1.15,2013-04-27 06:15:00,
2013-04-27 01:19:00,43.6,42.0,30.16,West,263,0.0,0.0,94,0.00,,,0.00,0,Wunderground v.1.15,2013-04-27 06:19:00,
2013-04-27 01:20:00,43.7,42.1,30.16,West,263,0.0,0.0,94,0.00,,,0.00,0,Wunderground v.1.15,2013-04-27 06:20:00,
2013-04-27 01:22:00,43.9,42.3,30.16,WSW,254,1.0,1.0,94,0.00,,,0.00,0,Wunderground v.1.15,2013-04-27 06:22:00,
2013-04-27 01:23:00,44.0,42.4,30.16,WSW,248,1.0,1.0,94,0.00,,,0.00,0,Wunderground v.1.15,2013-04-27 06:23:00,
2013-04-27 01:25:00,43.8,41.9,30.16,SW,225,1.0,1.0,93,0.00,,,0.00,0,Wunderground v.1.15,2013-04-27 06:25:00,
2013-04-27 01:28:00,44.0,42.4,30.16,SW,221,0.0,1.0,94,0.00,,,0.00,0,Wunderground v.1.15,2013-04-27 06:28:00,
2013-04-27 01:33:00,44.4,42.8,30.16,SW,221,0.0,1.0,94,0.00,,,0.00,0,Wunderground v.1.15,2013-04-27 06:33:00,
2013-04-27 01:34:00,44.5,42.9,30.16,SW,221,1.0,1.0,94,0.00,,,0.00,0,Wunderground v.1.15,2013-04-27 06:34:00,
2013-04-27 01:35:00,44.4,42.8,30.16,SW,221,1.0,1.0,94,0.00,,,0.00,0,Wunderground v.1.15,2013-04-27 06:35:00,
2013-04-27 01:39:00,44.5,42.9,30.15,South,175,3.0,3.0,94,0.00,,,0.00,0,Wunderground v.1.15,2013-04-27 06:39:00,
2013-04-27 01:40:00,44.5,42.9,30.15,South,175,3.0,3.0,94,0.00,,,0.00,0,Wunderground v.1.15,2013-04-27 06:40:00,
2013-04-27 01:41:00,44.5,42.9,30.15,South,175,1.0,3.0,94,0.00,,,0.00,0,Wunderground v.1.15,2013-04-27 06:41:00,
2013-04-27 01:44:00,44.7,43.1,30.15,South,175,0.0,3.0,94,0.00,,,0.00,0,Wunderground v.1.15,2013-04-27 06:44:00,
2013-04-27 01:45:00,44.8,43.2,30.15,South,175,0.0,3.0,94,0.00,,,0.00,0,Wunderground v.1.15,2013-04-27 06:45:00,
2013-04-27 01:47:00,44.9,43.3,30.15,South,175,0.0,3.0,94,0.00,,,0.00,0,Wunderground v.1.15,2013-04-27 06:47:00,
2013-04-27 01:48:00,45.0,43.4,30.15,South,175,1.0,3.0,94,0.00,,,0.00,0,Wunderground v.1.15,2013-04-27 06:48:00,
2013-04-27 01:49:00,45.0,43.4,30.15,South,175,1.0,3.0,94,0.00,,,0.00,0,Wunderground v.1.15,2013-04-27 06:49:00,
2013-04-27 01:53:00,44.9,43.0,30.15,South,171,1.0,2.0,93,0.00,,,0.00,0,Wunderground v.1.15,2013-04-27 06:53:00,
2013-04-27 01:54:00,44.9,43.0,30.15,South,171,2.0,2.0,93,0.00,,,0.00,0,Wunderground v.1.15,2013-04-27 06:54:00,
2013-04-27 01:55:00,44.9,43.0,30.15,South,171,2.0,2.0,93,0.00,,,0.00,0,Wunderground v.1.15,2013-04-27 06:55:00,
2013-04-27 01:56:00,44.9,43.0,30.15,South,171,1.0,2.0,93,0.00,,,0.00,0,Wunderground v.1.15,2013-04-27 06:56:00,
2013-04-27 02:00:00,45.0,43.4,30.15,South,171,2.0,2.0,94,0.00,,,0.00,0,Wunderground v.1.15,2013-04-27 07:00:00,
2013-04-27 02:01:00,45.1,43.5,30.15,South,171,1.0,2.0,94,0.00,,,0.00,0,Wunderground v.1.15,2013-04-27 07:01:00,
2013-04-27 02:02:00,45.1,43.5,30.15,South,171,1.0,2.0,94,0.00,,,0.00,0,Wunderground v.1.15,2013-04-27 07:02:00,
2013-04-27 02:03:00,45.1,43.2,30.15,South,171,3.0,3.0,93,0.00,,,0.00,0,Wunderground v.1.15,2013-04-27 07:03:00,
2013-04-27 02:06:00,45.1,43.2,30.14,South,171,2.0,3.0,93,0.00,,,0.00,0,Wunderground v.1.15,2013-04-27 07:06:00,
2013-04-27 02:07:00,45.1,43.2,30.14,South,171,2.0,3.0,93,0.00,,,0.00,0,Wunderground v.1.15,2013-04-27 07:07:00,
2013-04-27 02:09:00,45.1,43.2,30.14,South,171,1.0,3.0,93,0.00,,,0.00,0,Wunderground v.1.15,2013-04-27 07:09:00,
2013-04-27 02:10:00,45.1,43.2,30.14,South,171,1.0,3.0,93,0.00,,,0.00,0,Wunderground v.1.15,2013-04-27 07:10:00,
2013-04-27 02:13:00,45.1,43.2,30.14,South,171,2.0,2.0,93,0.00,,,0.00,0,Wunderground v.1.15,2013-04-27 07:13:00,
2013-04-27 02:14:00,45.0,43.1,30.14,South,171,2.0,2.0,93,0.00,,,0.00,0,Wunderground v.1.15,2013-04-27 07:14:00,
2013-04-27 02:15:00,45.0,43.1,30.14,South,171,2.0,2.0,93,0.00,,,0.00,0,Wunderground v.1.15,2013-04-27 07:15:00,
2013-04-27 02:19:00,44.9,43.0,30.13,South,171,1.0,2.0,93,0.00,,,0.00,0,Wunderground v.1.15,2013-04-27 07:19:00,
2013-04-27 02:20:00,45.0,43.1,30.13,South,171,1.0,1.0,93,0.00,,,0.00,0,Wunderground v.1.15,2013-04-27 07:20:00,
2013-04-27 02:21:00,44.9,43.0,30.14,South,171,1.0,1.0,93,0.00,,,0.00,0,Wunderground v.1.15,2013-04-27 07:21:00,
2013-04-27 02:23:00,44.9,43.0,30.14,South,171,0.0,1.0,93,0.00,,,0.00,0,Wunderground v.1.15,2013-04-27 07:23:00,
2013-04-27 02:25:00,44.9,43.0,30.14,South,171,0.0,1.0,93,0.00,,,0.00,0,Wunderground v.1.15,2013-04-27 07:25:00,
2013-04-27 02:27:00,44.8,42.9,30.14,South,171,0.0,1.0,93,0.00,,,0.00,0,Wunderground v.1.15,2013-04-27 07:27:00,
2013-04-27 02:29:00,44.7,42.8,30.14,South,171,0.0,1.0,93,0.00,,,0.00,0,Wunderground v.1.15,2013-04-27 07:29:00,
2013-04-27 02:30:00,44.7,42.8,30.14,South,171,1.0,1.0,93,0.00,,,0.00,0,Wunderground v.1.15,2013-04-27 07:30:00,
2013-04-27 02:31:00,44.7,42.8,30.14,South,171,0.0,1.0,93,0.00,,,0.00,0,Wunderground v.1.15,2013-04-27 07:31:00,
2013-04-27 02:33:00,44.7,42.8,30.14,South,171,0.0,1.0,93,0.00,,,0.00,0,Wunderground v.1.15,2013-04-27 07:33:00,
2013-04-27 02:34:00,44.7,42.8,30.13,South,171,0.0,1.0,93,0.00,,,0.00,0,Wunderground v.1.15,2013-04-27 07:34:00,
2013-04-27 02:35:00,44.6,42.7,30.13,South,171,1.0,1.0,93,0.00,,,0.00,0,Wunderground v.1.15,2013-04-27 07:35:00,
2013-04-27 02:36:00,44.6,42.7,30.13,South,171,1.0,1.0,93,0.00,,,0.00,0,Wunderground v.1.15,2013-04-27 07:36:00,
2013-04-27 02:39:00,44.5,42.6,30.13,South,171,2.0,2.0,93,0.00,,,0.00,0,Wunderground v.1.15,2013-04-27 07:39:00,
2013-04-27 02:40:00,44.5,42.9,30.13,South,171,1.0,1.0,94,0.00,,,0.00,0,Wunderground v.1.15,2013-04-27 07:40:00,
2013-04-27 02:41:00,44.5,42.9,30.13,South,171,1.0,1.0,94,0.00,,,0.00,0,Wunderground v.1.15,2013-04-27 07:41:00,
2013-04-27 02:43:00,44.5,42.9,30.13,South,171,2.0,2.0,94,0.00,,,0.00,0,Wunderground v.1.15,2013-04-27 07:43:00,
2013-04-27 02:45:00,44.5,42.9,30.13,South,171,1.0,3.0,94,0.00,,,0.00,0,Wunderground v.1.15,2013-04-27 07:45:00,
2013-04-27 02:46:00,44.5,42.9,30.13,South,171,1.0,3.0,94,0.00,,,0.00,0,Wunderground v.1.15,2013-04-27 07:46:00,
2013-04-27 02:48:00,44.4,42.5,30.13,South,171,3.0,3.0,93,0.00,,,0.00,0,Wunderground v.1.15,2013-04-27 07:48:00,
2013-04-27 02:51:00,44.4,42.8,30.13,South,171,3.0,3.0,94,0.00,,,0.00,0,Wunderground v.1.15,2013-04-27 07:51:00,
2013-04-27 02:53:00,44.4,42.8,30.13,South,171,2.0,3.0,94,0.00,,,0.00,0,Wunderground v.1.15,2013-04-27 07:53:00,
2013-04-27 02:54:00,44.4,42.8,30.13,South,171,2.0,3.0,94,0.00,,,0.00,0,Wunderground v.1.15,2013-04-27 07:54:00,
2013-04-27 02:56:00,44.4,42.8,30.13,South,171,1.0,3.0,94,0.00,,,0.00,0,Wunderground v.1.15,2013-04-27 07:56:00,
2013-04-27 03:00:00,44.3,42.7,30.13,South,171,2.0,3.0,94,0.00,,,0.00,0,Wunderground v.1.15,2013-04-27 08:00:00,
2013-04-27 03:01:00,44.3,42.7,30.13,South,171,1.0,3.0,94,0.00,,,0.00,0,Wunderground v.1.15,2013-04-27 08:01:00,
2013-04-27 03:03:00,44.2,42.6,30.13,South,171,1.0,3.0,94,0.00,,,0.00,0,Wunderground v.1.15,2013-04-27 08:03:00,
2013-04-27 03:05:00,44.2,42.6,30.13,South,171,0.0,3.0,94,0.00,,,0.00,0,Wunderground v.1.15,2013-04-27 08:05:00,
2013-04-27 03:06:00,44.1,42.5,30.13,South,171,1.0,3.0,94,0.00,,,0.00,0,Wunderground v.1.15,2013-04-27 08:06:00,
2013-04-27 03:08:00,44.1,42.5,30.13,South,171,2.0,3.0,94,0.00,,,0.00,0,Wunderground v.1.15,2013-04-27 08:08:00,
2013-04-27 03:09:00,44.1,42.5,30.13,South,171,0.0,3.0,94,0.00,,,0.00,0,Wunderground v.1.15,2013-04-27 08:09:00,
2013-04-27 03:10:00,44.1,42.5,30.13,South,171,0.0,3.0,94,0.00,,,0.00,0,Wunderground v.1.15,2013-04-27 08:10:00,
2013-04-27 03:11:00,44.0,42.4,30.13,South,171,0.0,1.0,94,0.00,,,0.00,0,Wunderground v.1.15,2013-04-27 08:11:00,
2013-04-27 03:12:00,44.0,42.4,30.12,South,171,0.0,1.0,94,0.00,,,0.00,0,Wunderground v.1.15,2013-04-27 08:12:00,
2013-04-27 03:14:00,43.9,42.3,30.13,South,171,0.0,1.0,94,0.00,,,0.00,0,Wunderground v.1.15,2013-04-27 08:14:00,
2013-04-27 03:16:00,43.8,42.2,30.12,South,171,0.0,1.0,94,0.00,,,0.00,0,Wunderground v.1.15,2013-04-27 08:16:00,
2013-04-27 03:17:00,43.8,42.2,30.12,South,171,0.0,1.0,94,0.00,,,0.00,0,Wunderground v.1.15,2013-04-27 08:17:00,
2013-04-27 03:18:00,43.7,42.1,30.12,South,171,0.0,1.0,94,0.00,,,0.00,0,Wunderground v.1.15,2013-04-27 08:18:00,
2013-04-27 03:20:00,43.6,42.0,30.12,South,171,1.0,2.0,94,0.00,,,0.00,0,Wunderground v.1.15,2013-04-27 08:20:00,
2013-04-27 03:21:00,43.6,42.0,30.12,South,171,1.0,2.0,94,0.00,,,0.00,0,Wunderground v.1.15,2013-04-27 08:21:00,
2013-04-27 03:23:00,43.7,42.4,30.12,South,171,1.0,2.0,95,0.00,,,0.00,0,Wunderground v.1.15,2013-04-27 08:23:00,
2013-04-27 03:24:00,43.8,42.5,30.12,South,171,1.0,2.0,95,0.00,,,0.00,0,Wunderground v.1.15,2013-04-27 08:24:00,
2013-04-27 03:27:00,43.9,42.6,30.12,South,171,2.0,2.0,95,0.00,,,0.00,0,Wunderground v.1.15,2013-04-27 08:27:00,
2013-04-27 03:29:00,44.0,42.7,30.12,South,171,1.0,2.0,95,0.00,,,0.00,0,Wunderground v.1.15,2013-04-27 08:29:00,
2013-04-27 03:31:00,44.0,42.7,30.12,South,171,2.0,3.0,95,0.00,,,0.00,0,Wunderground v.1.15,2013-04-27 08:31:00,
2013-04-27 03:33:00,44.1,42.8,30.12,South,171,2.0,3.0,95,0.00,,,0.00,0,Wunderground v.1.15,2013-04-27 08:33:00,
2013-04-27 03:34:00,44.1,42.8,30.12,South,171,3.0,3.0,95,0.00,,,0.00,0,Wunderground v.1.15,2013-04-27 08:34:00,
2013-04-27 03:35:00,44.1,42.8,30.12,South,171,2.0,3.0,95,0.00,,,0.00,0,Wunderground v.1.15,2013-04-27 08:35:00,
2013-04-27 03:36:00,44.1,42.8,30.12,South,171,2.0,3.0,95,0.00,,,0.00,0,Wunderground v.1.15,2013-04-27 08:36:00,
2013-04-27 03:38:00,44.0,42.4,30.12,South,171,0.0,3.0,94,0.00,,,0.00,0,Wunderground v.1.15,2013-04-27 08:38:00,
2013-04-27 03:39:00,43.9,42.3,30.12,South,171,0.0,3.0,94,0.00,,,0.00,0,Wunderground v.1.15,2013-04-27 08:39:00,
2013-04-27 03:41:00,43.8,42.2,30.12,South,171,1.0,1.0,94,0.00,,,0.00,0,Wunderground v.1.15,2013-04-27 08:41:00,
2013-04-27 03:44:00,43.6,42.0,30.12,South,171,2.0,2.0,94,0.00,,,0.00,0,Wunderground v.1.15,2013-04-27 08:44:00,
2013-04-27 03:46:00,43.6,42.0,30.12,South,171,2.0,2.0,94,0.00,,,0.00,0,Wunderground v.1.15,2013-04-27 08:46:00,
2013-04-27 03:47:00,43.6,42.3,30.12,South,171,2.0,3.0,95,0.00,,,0.00,0,Wunderground v.1.15,2013-04-27 08:47:00,
2013-04-27 03:49:00,43.7,42.4,30.12,South,171,2.0,3.0,95,0.00,,,0.00,0,Wunderground v.1.15,2013-04-27 08:49:00,
2013-04-27 03:52:00,43.9,42.6,30.12,South,171,2.0,2.0,95,0.00,,,0.00,0,Wunderground v.1.15,2013-04-27 08:52:00,
2013-04-27 03:53:00,44.0,42.7,30.12,South,171,2.0,3.0,95,0.00,,,0.00,0,Wunderground v.1.15,2013-04-27 08:53:00,
2013-04-27 03:54:00,44.1,42.8,30.12,South,171,1.0,3.0,95,0.00,,,0.00,0,Wunderground v.1.15,2013-04-27 08:54:00,
2013-04-27 03:58:00,44.1,42.8,30.12,South,171,3.0,4.0,95,0.00,,,0.00,0,Wunderground v.1.15,2013-04-27 08:58:00,
2013-04-27 03:59:00,44.1,42.8,30.11,South,171,1.0,4.0,95,0.00,,,0.00,0,Wunderground v.1.15,2013-04-27 08:59:00,
2013-04-27 04:01:00,44.0,42.7,30.12,South,171,2.0,2.0,95,0.00,,,0.00,0,Wunderground v.1.15,2013-04-27 09:01:00,
2013-04-27 04:02:00,44.0,42.7,30.12,South,171,1.0,2.0,95,0.00,,,0.00,0,Wunderground v.1.15,2013-04-27 09:02:00,
2013-04-27 04:03:00,43.9,42.6,30.12,South,171,0.0,2.0,95,0.00,,,0.00,0,Wunderground v.1.15,2013-04-27 09:03:00,
2013-04-27 04:04:00,43.9,42.6,30.12,South,171,0.0,2.0,95,0.00,,,0.00,0,Wunderground v.1.15,2013-04-27 09:04:00,
2013-04-27 04:07:00,43.9,42.6,30.12,South,171,2.0,2.0,95,0.00,,,0.00,0,Wunderground v.1.15,2013-04-27 09:07:00,
2013-04-27 04:08:00,43.9,42.6,30.12,South,171,3.0,3.0,95,0.00,,,0.00,0,Wunderground v.1.15,2013-04-27 09:08:00,
2013-04-27 04:09:00,44.0,42.7,30.12,South,169,3.0,3.0,95,0.00,,,0.00,0,Wunderground v.1.15,2013-04-27 09:09:00,
2013-04-27 04:12:00,44.4,43.1,30.12,SSE,168,0.0,4.0,95,0.00,,,0.00,0,Wunderground v.1.15,2013-04-27 09:12:00,
2013-04-27 04:13:00,44.5,43.2,30.12,SSE,168,1.0,4.0,95,0.00,,,0.00,0,Wunderground v.1.15,2013-04-27 09:13:00,
2013-04-27 04:14:00,44.6,43.3,30.12,SSE,168,2.0,4.0,95,0.00,,,0.00,0,Wunderground v.1.15,2013-04-27 09:14:00,
2013-04-27 04:15:00,44.6,43.3,30.12,SSE,168,2.0,4.0,95,0.00,,,0.00,0,Wunderground v.1.15,2013-04-27 09:15:00,
2013-04-27 04:17:00,44.8,43.7,30.12,SSE,168,2.0,4.0,96,0.00,,,0.00,0,Wunderground v.1.15,2013-04-27 09:17:00,
2013-04-27 04:18:00,44.9,43.8,30.12,SSE,168,3.0,4.0,96,0.00,,,0.00,0,Wunderground v.1.15,2013-04-27 09:18:00,
2013-04-27 04:19:00,45.0,43.9,30.12,SSE,168,2.0,4.0,96,0.00,,,0.00,0,Wunderground v.1.15,2013-04-27 09:19:00,
2013-04-27 04:21:00,45.1,44.0,30.12,SSE,168,1.0,2.0,96,0.00,,,0.00,0,Wunderground v.1.15,2013-04-27 09:21:00,
2013-04-27 04:24:00,45.3,44.0,30.12,SSE,168,2.0,2.0,95,0.00,,,0.00,0,Wunderground v.1.15,2013-04-27 09:24:00,
2013-04-27 04:25:00,45.4,44.1,30.12,SSE,168,1.0,3.0,95,0.00,,,0.00,0,Wunderground v.1.15,2013-04-27 09:25:00,
2013-04-27 04:26:00,45.4,44.1,30.12,SSE,168,2.0,3.0,95,0.00,,,0.00,0,Wunderground v.1.15,2013-04-27 09:26:00,
2013-04-27 04:27:00,45.5,44.4,30.12,SSE,168,2.0,3.0,96,0.00,,,0.00,0,Wunderground v.1.15,2013-04-27 09:27:00,
2013-04-27 04:29:00,45.6,44.5,30.12,SSE,168,1.0,3.0,96,0.00,,,0.00,0,Wunderground v.1.15,2013-04-27 09:29:00,
2013-04-27 04:31:00,45.6,44.3,30.12,SSE,168,3.0,3.0,95,0.00,,,0.00,0,Wunderground v.1.15,2013-04-27 09:31:00,
2013-04-27 04:33:00,45.7,44.4,30.12,SSE,168,1.0,3.0,95,0.00,,,0.00,0,Wunderground v.1.15,2013-04-27 09:33:00,
2013-04-27 04:34:00,45.7,44.4,30.12,SSE,168,2.0,3.0,95,0.00,,,0.00,0,Wunderground v.1.15,2013-04-27 09:34:00,
2013-04-27 04:38:00,45.7,44.4,30.12,SSE,168,2.0,4.0,95,0.00,,,0.00,0,Wunderground v.1.15,2013-04-27 09:38:00,
2013-04-27 04:39:00,45.8,44.4,30.12,SSE,168,1.0,4.0,95,0.00,,,0.00,0,Wunderground v.1.15,2013-04-27 09:39:00,
2013-04-27 04:40:00,45.8,44.4,30.12,SSE,168,1.0,4.0,95,0.00,,,0.00,0,Wunderground v.1.15,2013-04-27 09:40:00,
2013-04-27 04:41:00,45.8,44.4,30.12,SSE,168,3.0,3.0,95,0.00,,,0.00,0,Wunderground v.1.15,2013-04-27 09:41:00,
2013-04-27 04:44:00,45.8,44.4,30.11,SSE,168,3.0,3.0,95,0.00,,,0.00,0,Wunderground v.1.15,2013-04-27 09:44:00,
2013-04-27 04:45:00,45.8,44.4,30.11,South,169,2.0,3.0,95,0.00,,,0.00,0,Wunderground v.1.15,2013-04-27 09:45:00,
2013-04-27 04:46:00,45.8,44.4,30.11,South,169,0.0,3.0,95,0.00,,,0.00,0,Wunderground v.1.15,2013-04-27 09:46:00,
2013-04-27 04:47:00,45.8,44.4,30.11,South,169,0.0,3.0,95,0.00,,,0.00,0,Wunderground v.1.15,2013-04-27 09:47:00,
2013-04-27 04:49:00,45.8,44.4,30.11,South,169,2.0,3.0,95,0.00,,,0.00,0,Wunderground v.1.15,2013-04-27 09:49:00,
2013-04-27 04:50:00,45.8,44.4,30.11,South,169,2.0,3.0,95,0.00,,,0.00,0,Wunderground v.1.15,2013-04-27 09:50:00,
2013-04-27 04:52:00,45.8,44.4,30.11,South,169,2.0,3.0,95,0.00,,,0.00,0,Wunderground v.1.15,2013-04-27 09:52:00,
2013-04-27 04:53:00,45.8,44.4,30.11,South,169,0.0,3.0,95,0.00,,,0.00,0,Wunderground v.1.15,2013-04-27 09:53:00,
2013-04-27 04:54:00,45.8,44.4,30.11,South,169,0.0,3.0,95,0.00,,,0.00,0,Wunderground v.1.15,2013-04-27 09:54:00,
2013-04-27 04:55:00,45.8,44.4,30.11,South,169,1.0,3.0,95,0.00,,,0.00,0,Wunderground v.1.15,2013-04-27 09:55:00,
2013-04-27 04:57:00,45.8,44.4,30.11,South,169,1.0,3.0,95,0.00,,,0.00,0,Wunderground v.1.15,2013-04-27 09:57:00,
2013-04-27 04:58:00,45.8,44.4,30.11,South,169,2.0,3.0,95,0.00,,,0.00,0,Wunderground v.1.15,2013-04-27 09:58:00,
2013-04-27 04:59:00,45.8,44.4,30.11,South,169,2.0,3.0,95,0.00,,,0.00,0,Wunderground v.1.15,2013-04-27 09:59:00,
2013-04-27 05:00:00,45.8,44.4,30.11,South,169,2.0,3.0,95,0.00,,,0.00,0,Wunderground v.1.15,2013-04-27 10:00:00,
2013-04-27 05:01:00,45.8,44.4,30.11,South,169,1.0,2.0,95,0.00,,,0.00,0,Wunderground v.1.15,2013-04-27 10:01:00,
2013-04-27 05:02:00,45.8,44.4,30.11,South,169,2.0,2.0,95,0.00,,,0.00,0,Wunderground v.1.15,2013-04-27 10:02:00,
2013-04-27 05:03:00,45.8,44.4,30.11,South,169,2.0,2.0,95,0.00,,,0.00,0,Wunderground v.1.15,2013-04-27 10:03:00,
2013-04-27 05:04:00,45.8,44.4,30.11,South,169,1.0,2.0,95,0.00,,,0.00,0,Wunderground v.1.15,2013-04-27 10:04:00,
2013-04-27 05:06:00,45.8,44.4,30.11,South,169,2.0,3.0,95,0.00,,,0.00,0,Wunderground v.1.15,2013-04-27 10:06:00,
2013-04-27 05:07:00,45.8,44.4,30.11,South,169,0.0,3.0,95,0.00,,,0.00,0,Wunderground v.1.15,2013-04-27 10:07:00,
2013-04-27 05:09:00,45.9,44.5,30.11,South,169,1.0,3.0,95,0.00,,,0.00,0,Wunderground v.1.15,2013-04-27 10:09:00,
2013-04-27 05:10:00,45.9,44.5,30.11,South,169,0.0,3.0,95,0.00,,,0.00,0,Wunderground v.1.15,2013-04-27 10:10:00,
2013-04-27 05:12:00,45.9,44.5,30.11,South,169,2.0,2.0,95,0.00,,,0.00,0,Wunderground v.1.15,2013-04-27 10:12:00,
2013-04-27 05:15:00,46.0,44.6,30.11,South,169,0.0,2.0,95,0.00,,,0.00,0,Wunderground v.1.15,2013-04-27 10:15:00,
2013-04-27 05:16:00,46.0,44.6,30.11,South,169,0.0,2.0,95,0.00,,,0.00,0,Wunderground v.1.15,2013-04-27 10:16:00,
2013-04-27 05:17:00,46.0,44.6,30.11,South,169,0.0,2.0,95,0.00,,,0.00,0,Wunderground v.1.15,2013-04-27 10:17:00,
2013-04-27 05:19:00,46.0,44.6,30.11,South,169,1.0,2.0,95,0.00,,,0.00,0,Wunderground v.1.15,2013-04-27 10:19:00,
2013-04-27 05:20:00,46.0,44.6,30.10,South,169,0.0,1.0,95,0.00,,,0.00,0,Wunderground v.1.15,2013-04-27 10:20:00,
2013-04-27 05:21:00,46.0,44.6,30.10,South,169,0.0,1.0,95,0.00,,,0.00,0,Wunderground v.1.15,2013-04-27 10:21:00,
2013-04-27 05:22:00,46.0,44.6,30.10,South,169,0.0,1.0,95,0.00,,,0.00,0,Wunderground v.1.15,2013-04-27 10:22:00,
2013-04-27 05:25:00,46.0,44.6,30.10,South,169,1.0,2.0,95,0.00,,,0.00,0,Wunderground v.1.15,2013-04-27 10:25:00,
2013-04-27 05:27:00,46.0,44.6,30.10,South,169,1.0,3.0,95,0.00,,,0.00,0,Wunderground v.1.15,2013-04-27 10:27:00,
2013-04-27 05:28:00,46.0,44.6,30.10,South,169,1.0,3.0,95,0.00,,,0.00,0,Wunderground v.1.15,2013-04-27 10:28:00,
2013-04-27 05:31:00,46.1,44.7,30.10,South,169,1.0,2.0,95,0.00,,,0.00,0,Wunderground v.1.15,2013-04-27 10:31:00,
2013-04-27 05:32:00,46.1,44.7,30.10,South,169,2.0,2.0,95,0.00,,,0.00,0,Wunderground v.1.15,2013-04-27 10:32:00,
2013-04-27 05:34:00,46.1,44.7,30.10,South,169,3.0,3.0,95,0.00,,,0.00,0,Wunderground v.1.15,2013-04-27 10:34:00,
2013-04-27 05:35:00,46.1,44.7,30.10,South,169,2.0,3.0,95,0.00,,,0.00,0,Wunderground v.1.15,2013-04-27 10:35:00,
2013-04-27 05:36:00,46.1,44.7,30.10,South,169,2.0,3.0,95,0.00,,,0.00,0,Wunderground v.1.15,2013-04-27 10:36:00,
2013-04-27 05:39:00,46.1,44.7,30.10,South,169,2.0,3.0,95,0.00,,,0.00,0,Wunderground v.1.15,2013-04-27 10:39:00,
2013-04-27 05:40:00,46.1,44.7,30.10,South,169,2.0,3.0,95,0.00,,,0.00,0,Wunderground v.1.15,2013-04-27 10:40:00,
2013-04-27 05:41:00,46.1,44.7,30.10,South,169,2.0,3.0,95,0.00,,,0.00,0,Wunderground v.1.15,2013-04-27 10:41:00,
2013-04-27 05:43:00,46.1,44.7,30.10,South,169,2.0,2.0,95,0.00,,,0.00,0,Wunderground v.1.15,2013-04-27 10:43:00,
2013-04-27 05:45:00,46.1,44.7,30.10,South,169,3.0,3.0,95,0.00,,,0.00,0,Wunderground v.1.15,2013-04-27 10:45:00,
2013-04-27 05:48:00,46.1,44.7,30.10,South,169,1.0,3.0,95,0.00,,,0.00,0,Wunderground v.1.15,2013-04-27 10:48:00,
2013-04-27 05:49:00,46.1,44.7,30.10,South,169,2.0,3.0,95,0.00,,,0.00,0,Wunderground v.1.15,2013-04-27 10:49:00,
2013-04-27 05:50:00,46.1,44.7,30.10,South,169,3.0,3.0,95,0.00,,,0.00,0,Wunderground v.1.15,2013-04-27 10:50:00,
2013-04-27 05:52:00,46.1,44.7,30.10,South,169,1.0,3.0,95,0.00,,,0.00,0,Wunderground v.1.15,2013-04-27 10:52:00,
2013-04-27 05:53:00,46.1,44.7,30.10,South,169,2.0,3.0,95,0.00,,,0.00,0,Wunderground v.1.15,2013-04-27 10:53:00,
2013-04-27 05:54:00,46.1,44.7,30.10,South,169,2.0,3.0,95,0.00,,,0.00,0,Wunderground v.1.15,2013-04-27 10:54:00,
2013-04-27 05:55:00,46.1,44.7,30.10,South,169,3.0,3.0,95,0.00,,,0.00,0,Wunderground v.1.15,2013-04-27 10:55:00,
2013-04-27 05:57:00,46.1,44.7,30.10,SSE,161,5.0,5.0,95,0.00,,,0.00,0,Wunderground v.1.15,2013-04-27 10:57:00,
2013-04-27 05:58:00,46.1,44.7,30.10,SSE,161,2.0,5.0,95,0.00,,,0.00,0,Wunderground v.1.15,2013-04-27 10:58:00,
2013-04-27 06:00:00,46.1,44.7,30.10,SSE,161,1.0,5.0,95,0.00,,,0.00,0,Wunderground v.1.15,2013-04-27 11:00:00,
2013-04-27 06:01:00,46.1,44.7,30.10,SSE,161,3.0,3.0,95,0.00,,,0.00,0,Wunderground v.1.15,2013-04-27 11:01:00,
2013-04-27 06:05:00,46.1,44.7,30.10,SSE,161,3.0,3.0,95,0.00,,,0.00,0,Wunderground v.1.15,2013-04-27 11:05:00,
2013-04-27 06:06:00,46.1,44.7,30.10,SSE,161,2.0,3.0,95,0.00,,,0.00,0,Wunderground v.1.15,2013-04-27 11:06:00,
2013-04-27 06:07:00,46.1,44.7,30.10,SSE,161,2.0,3.0,95,0.00,,,0.00,0,Wunderground v.1.15,2013-04-27 11:07:00,
2013-04-27 06:08:00,46.2,44.8,30.10,SSE,161,4.0,4.0,95,0.00,,,0.00,0,Wunderground v.1.15,2013-04-27 11:08:00,
2013-04-27 06:11:00,46.2,44.8,30.10,SSE,161,2.0,2.0,95,0.00,,,0.00,0,Wunderground v.1.15,2013-04-27 11:11:00,
2013-04-27 06:13:00,46.2,44.8,30.10,SSE,159,1.0,4.0,95,0.00,,,0.00,0,Wunderground v.1.15,2013-04-27 11:13:00,
2013-04-27 06:14:00,46.2,44.8,30.10,SSE,159,2.0,4.0,95,0.00,,,0.00,0,Wunderground v.1.15,2013-04-27 11:14:00,
2013-04-27 06:16:00,46.2,44.8,30.10,SSE,159,2.0,4.0,95,0.00,,,0.00,0,Wunderground v.1.15,2013-04-27 11:16:00,
2013-04-27 06:18:00,46.3,44.9,30.10,SSE,159,3.0,4.0,95,0.00,,,0.00,0,Wunderground v.1.15,2013-04-27 11:18:00,
2013-04-27 06:19:00,46.3,44.9,30.10,SSE,159,2.0,4.0,95,0.00,,,0.00,0,Wunderground v.1.15,2013-04-27 11:19:00,
2013-04-27 06:20:00,46.3,44.9,30.10,SSE,159,3.0,4.0,95,0.00,,,0.00,0,Wunderground v.1.15,2013-04-27 11:20:00,
2013-04-27 06:21:00,46.3,44.9,30.10,SSE,159,0.0,3.0,95,0.00,,,0.00,0,Wunderground v.1.15,2013-04-27 11:21:00,
2013-04-27 06:24:00,46.4,45.0,30.10,SSE,159,0.0,3.0,95,0.00,,,0.00,0,Wunderground v.1.15,2013-04-27 11:24:00,
2013-04-27 06:26:00,46.4,45.0,30.10,SSE,159,0.0,3.0,95,0.00,,,0.00,5,Wunderground v.1.15,2013-04-27 11:26:00,
2013-04-27 06:27:00,46.4,45.0,30.10,SSE,159,0.0,3.0,95,0.00,,,0.00,5,Wunderground v.1.15,2013-04-27 11:27:00,
2013-04-27 06:28:00,46.4,45.0,30.10,SSE,159,0.0,3.0,95,0.00,,,0.00,5,Wunderground v.1.15,2013-04-27 11:28:00,
2013-04-27 06:29:00,46.5,45.1,30.10,SSE,159,1.0,3.0,95,0.00,,,0.00,5,Wunderground v.1.15,2013-04-27 11:29:00,
2013-04-27 06:31:00,46.5,45.1,30.10,SSE,159,2.0,2.0,95,0.00,,,0.00,7,Wunderground v.1.15,2013-04-27 11:31:00,
2013-04-27 06:32:00,46.5,45.1,30.10,SSE,159,1.0,2.0,95,0.00,,,0.00,7,Wunderground v.1.15,2013-04-27 11:32:00,
2013-04-27 06:34:00,46.5,45.1,30.10,SSE,159,2.0,2.0,95,0.00,,,0.00,7,Wunderground v.1.15,2013-04-27 11:34:00,
2013-04-27 06:35:00,46.5,45.1,30.10,SSE,159,3.0,3.0,95,0.00,,,0.00,9,Wunderground v.1.15,2013-04-27 11:35:00,
2013-04-27 06:37:00,46.6,45.2,30.10,SSE,159,3.0,3.0,95,0.00,,,0.00,11,Wunderground v.1.15,2013-04-27 11:37:00,
2013-04-27 06:38:00,46.6,45.2,30.10,SSE,159,4.0,4.0,95,0.00,,,0.00,11,Wunderground v.1.15,2013-04-27 11:38:00,
2013-04-27 06:41:00,46.7,45.3,30.10,SSE,157,1.0,3.0,95,0.00,,,0.00,12,Wunderground v.1.15,2013-04-27 11:41:00,
2013-04-27 06:43:00,46.7,45.3,30.10,SSE,157,3.0,3.0,95,0.00,,,0.00,14,Wunderground v.1.15,2013-04-27 11:43:00,
2013-04-27 06:46:00,46.8,45.4,30.10,SSE,157,1.0,3.0,95,0.00,,,0.00,18,Wunderground v.1.15,2013-04-27 11:46:00,
2013-04-27 06:48:00,46.9,45.5,30.11,SSE,157,1.0,3.0,95,0.00,,,0.00,19,Wunderground v.1.15,2013-04-27 11:48:00,
2013-04-27 06:49:00,46.9,45.5,30.11,SSE,157,2.0,3.0,95,0.00,,,0.00,19,Wunderground v.1.15,2013-04-27 11:49:00,
2013-04-27 06:52:00,46.9,45.5,30.11,SSE,157,2.0,2.0,95,0.00,,,0.00,25,Wunderground v.1.15,2013-04-27 11:52:00,
2013-04-27 06:53:00,47.0,45.6,30.10,SSE,157,2.0,3.0,95,0.00,,,0.00,23,Wunderground v.1.15,2013-04-27 11:53:00,
2013-04-27 06:57:00,47.1,45.7,30.11,SSE,157,1.0,3.0,95,0.00,,,0.00,26,Wunderground v.1.15,2013-04-27 11:57:00,
2013-04-27 06:58:00,47.2,45.8,30.11,SSE,157,4.0,4.0,95,0.00,,,0.00,25,Wunderground v.1.15,2013-04-27 11:58:00,
2013-04-27 07:00:00,47.2,45.8,30.11,SSE,157,4.0,4.0,95,0.00,,,0.00,25,Wunderground v.1.15,2013-04-27 12:00:00,
2013-04-27 07:02:00,47.2,45.8,30.11,SSE,157,2.0,4.0,95,0.00,,,0.00,30,Wunderground v.1.15,2013-04-27 12:02:00,
2013-04-27 07:03:00,47.2,45.8,30.11,SSE,157,1.0,4.0,95,0.00,,,0.00,30,Wunderground v.1.15,2013-04-27 12:03:00,
2013-04-27 07:06:00,47.3,45.9,30.11,SSE,157,1.0,4.0,95,0.00,,,0.00,33,Wunderground v.1.15,2013-04-27 12:06:00,
2013-04-27 07:08:00,47.4,46.0,30.11,SSE,157,2.0,4.0,95,0.00,,,0.00,35,Wunderground v.1.15,2013-04-27 12:08:00,
2013-04-27 07:11:00,47.5,46.1,30.10,SSE,157,3.0,3.0,95,0.00,,,0.00,44,Wunderground v.1.15,2013-04-27 12:11:00,
2013-04-27 07:12:00,47.5,46.1,30.10,SSE,157,1.0,3.0,95,0.00,,,0.00,42,Wunderground v.1.15,2013-04-27 12:12:00,
2013-04-27 07:13:00,47.5,46.1,30.10,SSE,157,3.0,3.0,95,0.00,,,0.00,42,Wunderground v.1.15,2013-04-27 12:13:00,
2013-04-27 07:14:00,47.6,46.2,30.11,SSE,158,2.0,3.0,95,0.00,,,0.00,47,Wunderground v.1.15,2013-04-27 12:14:00,
2013-04-27 07:18:00,47.6,46.0,30.10,SSE,158,2.0,3.0,94,0.00,,,0.00,62,Wunderground v.1.15,2013-04-27 12:18:00,
2013-04-27 07:19:00,47.7,46.1,30.10,SSE,158,3.0,3.0,94,0.00,,,0.00,72,Wunderground v.1.15,2013-04-27 12:19:00,
2013-04-27 07:20:00,47.7,46.1,30.10,SSE,158,1.0,2.0,94,0.00,,,0.00,79,Wunderground v.1.15,2013-04-27 12:20:00,
2013-04-27 07:23:00,47.8,46.2,30.10,SSE,158,1.0,3.0,94,0.00,,,0.00,148,Wunderground v.1.15,2013-04-27 12:23:00,
2013-04-27 07:24:00,48.0,46.6,30.11,SSE,158,2.0,3.0,95,0.00,,,0.00,148,Wunderground v.1.15,2013-04-27 12:24:00,
2013-04-27 07:25:00,48.1,46.7,30.10,SSE,158,3.0,3.0,95,0.00,,,0.00,148,Wunderground v.1.15,2013-04-27 12:25:00,
2013-04-27 07:27:00,48.2,46.6,30.11,SSE,159,2.0,3.0,94,0.00,,,0.00,113,Wunderground v.1.15,2013-04-27 12:27:00,
2013-04-27 07:29:00,48.4,46.8,30.11,South,171,4.0,4.0,94,0.00,,,0.00,162,Wunderground v.1.15,2013-04-27 12:29:00,
2013-04-27 07:30:00,48.5,46.9,30.11,South,182,4.0,4.0,94,0.00,,,0.00,121,Wunderground v.1.15,2013-04-27 12:30:00,
2013-04-27 07:31:00,48.5,46.9,30.10,South,182,2.0,4.0,94,0.00,,,0.00,111,Wunderground v.1.15,2013-04-27 12:31:00,
2013-04-27 07:33:00,48.6,47.0,30.11,South,182,2.0,4.0,94,0.00,,,0.00,167,Wunderground v.1.15,2013-04-27 12:33:00,
2013-04-27 07:35:00,48.7,46.8,30.11,South,182,2.0,4.0,93,0.00,,,0.00,155,Wunderground v.1.15,2013-04-27 12:35:00,
2013-04-27 07:36:00,48.8,46.9,30.11,South,182,2.0,4.0,93,0.00,,,0.00,160,Wunderground v.1.15,2013-04-27 12:36:00,
2013-04-27 07:38:00,48.9,47.0,30.10,South,184,2.0,4.0,93,0.00,,,0.00,160,Wunderground v.1.15,2013-04-27 12:38:00,
2013-04-27 07:41:00,49.0,47.1,30.10,South,183,3.0,3.0,93,0.00,,,0.00,155,Wunderground v.1.15,2013-04-27 12:41:00,
2013-04-27 07:42:00,49.1,47.2,30.10,South,184,4.0,5.0,93,0.00,,,0.00,172,Wunderground v.1.15,2013-04-27 12:42:00,
2013-04-27 07:43:00,49.2,47.3,30.10,South,187,5.0,5.0,93,0.00,,,0.00,178,Wunderground v.1.15,2013-04-27 12:43:00,
2013-04-27 07:44:00,49.2,47.3,30.10,SSW,193,3.0,5.0,93,0.00,,,0.00,183,Wunderground v.1.15,2013-04-27 12:44:00,
2013-04-27 07:46:00,49.3,47.4,30.10,South,190,3.0,5.0,93,0.00,,,0.00,186,Wunderground v.1.15,2013-04-27 12:46:00,
2013-04-27 07:47:00,49.4,47.2,30.10,South,188,4.0,5.0,92,0.00,,,0.00,192,Wunderground v.1.15,2013-04-27 12:47:00,
2013-04-27 07:49:00,49.4,47.2,30.10,South,188,3.0,5.0,92,0.00,,,0.00,199,Wunderground v.1.15,2013-04-27 12:49:00,
2013-04-27 07:50:00,49.6,47.4,30.10,South,184,3.0,4.0,92,0.00,,,0.00,199,Wunderground v.1.15,2013-04-27 12:50:00,
2013-04-27 07:51:00,49.7,47.5,30.10,South,185,4.0,4.0,92,0.00,,,0.00,202,Wunderground v.1.15,2013-04-27 12:51:00,
2013-04-27 07:52:00,49.7,47.5,30.10,SSW,194,4.0,4.0,92,0.00,,,0.00,206,Wunderground v.1.15,2013-04-27 12:52:00,
2013-04-27 07:53:00,49.7,47.5,30.10,SSW,194,2.0,4.0,92,0.00,,,0.00,206,Wunderground v.1.15,2013-04-27 12:53:00,
2013-04-27 07:55:00,49.8,47.6,30.10,South,187,3.0,4.0,92,0.00,,,0.00,218,Wunderground v.1.15,2013-04-27 12:55:00,
2013-04-27 07:57:00,49.8,47.3,30.10,South,187,2.0,4.0,91,0.00,,,0.00,214,Wunderground v.1.15,2013-04-27 12:57:00,
2013-04-27 07:58:00,49.9,47.7,30.10,South,186,2.0,4.0,92,0.00,,,0.00,229,Wunderground v.1.15,2013-04-27 12:58:00,
2013-04-27 08:00:00,50.0,47.5,30.10,SSW,199,4.0,4.0,91,0.00,,,0.00,234,Wunderground v.1.15,2013-04-27 13:00:00,
2013-04-27 08:03:00,50.1,47.6,30.10,South,184,4.0,4.0,91,0.00,,,0.00,237,Wunderground v.1.15,2013-04-27 13:03:00,
2013-04-27 08:04:00,50.1,47.6,30.10,South,184,4.0,4.0,91,0.00,,,0.00,237,Wunderground v.1.15,2013-04-27 13:04:00,
2013-04-27 08:05:00,50.2,47.7,30.10,South,186,3.0,4.0,91,0.00,,,0.00,253,Wunderground v.1.15,2013-04-27 13:05:00,
2013-04-27 08:06:00,50.3,48.1,30.10,South,187,1.0,4.0,92,0.00,,,0.00,251,Wunderground v.1.15,2013-04-27 13:06:00,
2013-04-27 08:09:00,50.4,47.9,30.10,South,184,1.0,4.0,91,0.00,,,0.00,253,Wunderground v.1.15,2013-04-27 13:09:00,
2013-04-27 08:10:00,50.6,48.1,30.10,South,184,3.0,3.0,91,0.00,,,0.00,262,Wunderground v.1.15,2013-04-27 13:10:00,
2013-04-27 08:11:00,50.6,48.1,30.10,South,188,2.0,3.0,91,0.00,,,0.00,269,Wunderground v.1.15,2013-04-27 13:11:00,
2013-04-27 08:14:00,50.8,48.0,30.10,South,186,3.0,4.0,90,0.00,,,0.00,278,Wunderground v.1.15,2013-04-27 13:14:00,
2013-04-27 08:16:00,50.8,48.0,30.10,SSW,194,1.0,4.0,90,0.00,,,0.00,283,Wunderground v.1.15,2013-04-27 13:16:00,
2013-04-27 08:17:00,50.8,47.7,30.10,SSW,194,3.0,4.0,89,0.00,,,0.00,283,Wunderground v.1.15,2013-04-27 13:17:00,
2013-04-27 08:19:00,50.8,47.7,30.10,SSW,194,2.0,4.0,89,0.00,,,0.00,283,Wunderground v.1.15,2013-04-27 13:19:00,
2013-04-27 08:21:00,51.2,48.1,30.10,SSW,198,2.0,3.0,89,0.00,,,0.00,306,Wunderground v.1.15,2013-04-27 13:21:00,
2013-04-27 08:22:00,51.2,48.1,30.10,South,180,3.0,3.0,89,0.00,,,0.00,306,Wunderground v.1.15,2013-04-27 13:22:00,
2013-04-27 08:23:00,51.3,48.2,30.10,South,186,3.0,3.0,89,0.00,,,0.00,306,Wunderground v.1.15,2013-04-27 13:23:00,
2013-04-27 08:24:00,51.3,47.9,30.10,SSW,204,5.0,5.0,88,0.00,,,0.00,246,Wunderground v.1.15,2013-04-27 13:24:00,
2013-04-27 08:25:00,51.3,48.2,30.10,SSW,211,4.0,5.0,89,0.00,,,0.00,318,Wunderground v.1.15,2013-04-27 13:25:00,
2013-04-27 08:27:00,51.4,48.0,30.10,SW,217,3.0,5.0,88,0.00,,,0.00,332,Wunderground v.1.15,2013-04-27 13:27:00,
2013-04-27 08:28:00,51.4,48.0,30.10,SW,217,0.0,5.0,88,0.00,,,0.00,338,Wunderground v.1.15,2013-04-27 13:28:00,
2013-04-27 08:29:00,51.6,48.2,30.10,South,186,3.0,5.0,88,0.00,,,0.00,230,Wunderground v.1.15,2013-04-27 13:29:00,
2013-04-27 08:30:00,51.6,48.2,30.10,South,186,3.0,5.0,88,0.00,,,0.00,230,Wunderground v.1.15,2013-04-27 13:30:00,
2013-04-27 08:31:00,51.6,48.2,30.10,South,185,1.0,2.0,88,0.00,,,0.00,230,Wunderground v.1.15,2013-04-27 13:31:00,
2013-04-27 08:32:00,51.7,48.3,30.10,South,185,1.0,2.0,88,0.00,,,0.00,338,Wunderground v.1.15,2013-04-27 13:32:00,
2013-04-27 08:33:00,51.7,48.6,30.10,South,185,0.0,2.0,89,0.00,,,0.00,352,Wunderground v.1.15,2013-04-27 13:33:00,
2013-04-27 08:35:00,51.7,48.3,30.10,South,187,0.0,4.0,88,0.00,,,0.00,348,Wunderground v.1.15,2013-04-27 13:35:00,
2013-04-27 08:36:00,51.7,48.3,30.10,South,186,2.0,4.0,88,0.00,,,0.00,364,Wunderground v.1.15,2013-04-27 13:36:00,
2013-04-27 08:39:00,52.1,48.7,30.09,SW,217,1.0,4.0,88,0.00,,,0.00,385,Wunderground v.1.15,2013-04-27 13:39:00,
2013-04-27 08:41:00,52.2,48.4,30.09,SW,227,2.0,2.0,87,0.00,,,0.00,397,Wunderground v.1.15,2013-04-27 13:41:00,
2013-04-27 08:42:00,52.3,48.9,30.09,SW,227,0.0,2.0,88,0.00,,,0.00,396,Wunderground v.1.15,2013-04-27 13:42:00,
2013-04-27 08:48:00,52.3,48.2,30.09,South,191,2.0,7.0,86,0.00,,,0.00,415,Wunderground v.1.15,2013-04-27 13:48:00,
2013-04-27 08:49:00,52.2,48.1,30.09,SSW,197,1.0,7.0,86,0.00,,,0.00,417,Wunderground v.1.15,2013-04-27 13:49:00,
2013-04-27 08:51:00,52.1,48.0,30.09,SSW,198,2.0,3.0,86,0.00,,,0.00,418,Wunderground v.1.15,2013-04-27 13:51:00,
2013-04-27 08:54:00,52.6,48.8,30.09,South,187,3.0,5.0,87,0.00,,,0.00,424,Wunderground v.1.15,2013-04-27 13:54:00,
2013-04-27 08:55:00,52.8,48.7,30.09,SSW,194,4.0,5.0,86,0.00,,,0.00,438,Wunderground v.1.15,2013-04-27 13:55:00,
2013-04-27 08:56:00,52.8,48.7,30.09,SSW,194,1.0,5.0,86,0.00,,,0.00,438,Wunderground v.1.15,2013-04-27 13:56:00,
2013-04-27 08:57:00,52.9,48.8,30.09,South,179,1.0,5.0,86,0.00,,,0.00,439,Wunderground v.1.15,2013-04-27 13:57:00,
2013-04-27 08:59:00,53.1,49.3,30.09,SSE,157,3.0,5.0,87,0.00,,,0.00,445,Wunderground v.1.15,2013-04-27 13:59:00,
2013-04-27 09:01:00,53.0,48.3,30.09,South,175,6.0,6.0,84,0.00,,,0.00,450,Wunderground v.1.15,2013-04-27 14:01:00,
2013-04-27 09:02:00,53.0,48.3,30.09,South,176,3.0,6.0,84,0.00,,,0.00,438,Wunderground v.1.15,2013-04-27 14:02:00,
2013-04-27 09:03:00,52.9,48.5,30.09,South,176,1.0,6.0,85,0.00,,,0.00,462,Wunderground v.1.15,2013-04-27 14:03:00,
2013-04-27 09:05:00,52.9,48.2,30.09,South,171,6.0,8.0,84,0.00,,,0.00,471,Wunderground v.1.15,2013-04-27 14:05:00,
2013-04-27 09:07:00,53.0,48.3,30.09,South,173,4.0,8.0,84,0.00,,,0.00,471,Wunderground v.1.15,2013-04-27 14:07:00,
2013-04-27 09:08:00,53.2,48.5,30.09,SSW,195,5.0,8.0,84,0.00,,,0.00,476,Wunderground v.1.15,2013-04-27 14:08:00,
2013-04-27 09:10:00,53.3,48.9,30.09,SSE,163,5.0,5.0,85,0.00,,,0.00,512,Wunderground v.1.15,2013-04-27 14:10:00,
2013-04-27 09:12:00,53.5,48.5,30.09,South,177,3.0,5.0,83,0.00,,,0.00,512,Wunderground v.1.15,2013-04-27 14:12:00,
2013-04-27 09:13:00,53.4,48.7,30.09,South,171,4.0,6.0,84,0.00,,,0.00,512,Wunderground v.1.15,2013-04-27 14:13:00,
2013-04-27 09:14:00,53.4,48.7,30.09,SSE,165,6.0,6.0,84,0.00,,,0.00,512,Wunderground v.1.15,2013-04-27 14:14:00,
2013-04-27 09:15:00,53.4,48.7,30.09,South,188,6.0,7.0,84,0.00,,,0.00,207,Wunderground v.1.15,2013-04-27 14:15:00,
2013-04-27 09:17:00,53.3,48.3,30.09,South,186,2.0,7.0,83,0.00,,,0.00,207,Wunderground v.1.15,2013-04-27 14:17:00,
2013-04-27 09:19:00,53.6,49.2,30.09,SSW,197,3.0,7.0,85,0.00,,,0.00,566,Wunderground v.1.15,2013-04-27 14:19:00,
2013-04-27 09:20:00,53.7,49.3,30.09,SSW,197,2.0,7.0,85,0.00,,,0.00,566,Wunderground v.1.15,2013-04-27 14:20:00,
2013-04-27 09:22:00,54.0,48.6,30.09,South,175,5.0,6.0,82,0.00,,,0.00,561,Wunderground v.1.15,2013-04-27 14:22:00,
2013-04-27 09:23:00,54.2,49.1,30.09,SE,146,7.0,7.0,83,0.00,,,0.00,561,Wunderground v.1.15,2013-04-27 14:23:00,
2013-04-27 09:25:00,54.8,49.4,30.09,SSE,167,7.0,9.0,82,0.00,,,0.00,543,Wunderground v.1.15,2013-04-27 14:25:00,
2013-04-27 09:28:00,54.7,48.6,30.09,SSE,150,6.0,9.0,80,0.00,,,0.00,550,Wunderground v.1.15,2013-04-27 14:28:00,
2013-04-27 09:30:00,55.0,49.3,30.09,SSE,165,5.0,6.0,81,0.00,,,0.00,418,Wunderground v.1.15,2013-04-27 14:30:00,
2013-04-27 09:32:00,54.9,48.8,30.09,SSE,165,5.0,8.0,80,0.00,,,0.00,418,Wunderground v.1.15,2013-04-27 14:32:00,
2013-04-27 09:33:00,55.0,48.9,30.09,South,173,7.0,8.0,80,0.00,,,0.00,563,Wunderground v.1.15,2013-04-27 14:33:00,
2013-04-27 09:35:00,55.0,48.6,30.09,SSE,161,5.0,9.0,79,0.00,,,0.00,545,Wunderground v.1.15,2013-04-27 14:35:00,
2013-04-27 09:37:00,54.9,48.8,30.09,South,184,6.0,9.0,80,0.00,,,0.00,563,Wunderground v.1.15,2013-04-27 14:37:00,
2013-04-27 09:39:00,55.0,48.9,30.09,South,175,6.0,9.0,80,0.00,,,0.00,596,Wunderground v.1.15,2013-04-27 14:39:00,
2013-04-27 09:40:00,55.1,49.0,30.09,South,180,7.0,9.0,80,0.00,,,0.00,603,Wunderground v.1.15,2013-04-27 14:40:00,
2013-04-27 09:41:00,55.0,48.3,30.09,South,179,6.0,8.0,78,0.00,,,0.00,633,Wunderground v.1.15,2013-04-27 14:41:00,
2013-04-27 09:44:00,55.1,49.0,30.09,SSE,166,5.0,8.0,80,0.00,,,0.00,633,Wunderground v.1.15,2013-04-27 14:44:00,
2013-04-27 09:45:00,55.1,48.7,30.08,South,183,7.0,8.0,79,0.00,,,0.00,633,Wunderground v.1.15,2013-04-27 14:45:00,
2013-04-27 09:46:00,55.0,48.3,30.09,SSE,150,6.0,8.0,78,0.00,,,0.00,251,Wunderground v.1.15,2013-04-27 14:46:00,
2013-04-27 09:48:00,54.7,48.3,30.08,SSW,202,5.0,8.0,79,0.00,,,0.00,244,Wunderground v.1.15,2013-04-27 14:48:00,
2013-04-27 09:49:00,54.7,48.6,30.08,SSW,211,4.0,8.0,80,0.00,,,0.00,591,Wunderground v.1.15,2013-04-27 14:49:00,
2013-04-27 09:51:00,55.2,50.1,30.09,South,186,5.0,6.0,83,0.00,,,0.00,591,Wunderground v.1.15,2013-04-27 14:51:00,
2013-04-27 09:53:00,55.9,49.5,30.08,SE,146,10.0,10.0,79,0.00,,,0.00,663,Wunderground v.1.15,2013-04-27 14:53:00,
2013-04-27 09:56:00,56.0,48.9,30.08,SE,131,8.0,10.0,77,0.00,,,0.00,649,Wunderground v.1.15,2013-04-27 14:56:00,
2013-04-27 09:58:00,56.3,49.2,30.09,SSE,153,7.0,10.0,77,0.00,,,0.00,652,Wunderground v.1.15,2013-04-27 14:58:00,
2013-04-27 10:02:00,56.8,49.3,30.09,SSW,194,7.0,9.0,76,0.00,,,0.00,705,Wunderground v.1.15,2013-04-27 15:02:00,
2013-04-27 10:04:00,56.4,48.9,30.09,South,187,6.0,11.0,76,0.00,,,0.00,705,Wunderground v.1.15,2013-04-27 15:04:00,
2013-04-27 10:07:00,55.5,48.4,30.08,SSW,198,7.0,11.0,77,0.00,,,0.00,343,Wunderground v.1.15,2013-04-27 15:07:00,
2013-04-27 10:09:00,55.8,49.0,30.08,SSE,158,7.0,11.0,78,0.00,,,0.00,744,Wunderground v.1.15,2013-04-27 15:09:00,
2013-04-27 10:12:00,56.6,49.1,30.08,South,179,5.0,9.0,76,0.00,,,0.00,682,Wunderground v.1.15,2013-04-27 15:12:00,
2013-04-27 10:13:00,56.6,48.8,30.08,South,176,6.0,9.0,75,0.00,,,0.00,686,Wunderground v.1.15,2013-04-27 15:13:00,
2013-04-27 10:14:00,56.6,48.8,30.08,South,184,9.0,9.0,75,0.00,,,0.00,686,Wunderground v.1.15,2013-04-27 15:14:00,
2013-04-27 10:17:00,56.8,49.0,30.09,South,172,3.0,9.0,75,0.00,,,0.00,719,Wunderground v.1.15,2013-04-27 15:17:00,
2013-04-27 10:18:00,56.7,48.9,30.08,SSE,166,8.0,9.0,75,0.00,,,0.00,733,Wunderground v.1.15,2013-04-27 15:18:00,
2013-04-27 10:19:00,56.7,48.9,30.08,SSE,164,6.0,9.0,75,0.00,,,0.00,733,Wunderground v.1.15,2013-04-27 15:19:00,
2013-04-27 10:21:00,56.7,48.9,30.08,South,176,6.0,10.0,75,0.00,,,0.00,497,Wunderground v.1.15,2013-04-27 15:21:00,
2013-04-27 10:22:00,56.8,49.0,30.08,South,179,7.0,10.0,75,0.00,,,0.00,497,Wunderground v.1.15,2013-04-27 15:22:00,
2013-04-27 10:23:00,56.9,49.4,30.08,South,169,5.0,10.0,76,0.00,,,0.00,497,Wunderground v.1.15,2013-04-27 15:23:00,
2013-04-27 10:24:00,56.8,49.0,30.08,SSE,165,5.0,10.0,75,0.00,,,0.00,731,Wunderground v.1.15,2013-04-27 15:24:00,
2013-04-27 10:25:00,57.0,49.5,30.08,South,180,9.0,10.0,76,0.00,,,0.00,735,Wunderground v.1.15,2013-04-27 15:25:00,
2013-04-27 10:27:00,57.1,48.9,30.08,SSE,159,7.0,10.0,74,0.00,,,0.00,721,Wunderground v.1.15,2013-04-27 15:27:00,
2013-04-27 10:29:00,57.1,48.9,30.08,South,184,8.0,10.0,74,0.00,,,0.00,721,Wunderground v.1.15,2013-04-27 15:29:00,
2013-04-27 10:30:00,56.9,48.7,30.08,SSE,159,4.0,7.0,74,0.00,,,0.00,721,Wunderground v.1.15,2013-04-27 15:30:00,
2013-04-27 10:31:00,56.8,48.6,30.08,SE,146,3.0,7.0,74,0.00,,,0.00,721,Wunderground v.1.15,2013-04-27 15:31:00,
2013-04-27 10:33:00,56.8,49.0,30.08,SSE,168,5.0,10.0,75,0.00,,,0.00,735,Wunderground v.1.15,2013-04-27 15:33:00,
2013-04-27 10:34:00,57.2,49.3,30.08,SE,135,10.0,10.0,75,0.00,,,0.00,731,Wunderground v.1.15,2013-04-27 15:34:00,
2013-04-27 10:36:00,57.9,49.7,30.08,SSW,193,8.0,10.0,74,0.00,,,0.00,758,Wunderground v.1.15,2013-04-27 15:36:00,
2013-04-27 10:38:00,58.4,50.1,30.08,South,191,8.0,10.0,74,0.00,,,0.00,747,Wunderground v.1.15,2013-04-27 15:38:00,
2013-04-27 10:39:00,58.5,49.9,30.08,South,186,9.0,10.0,73,0.00,,,0.00,735,Wunderground v.1.15,2013-04-27 15:39:00,
2013-04-27 10:40:00,58.5,49.9,30.08,South,182,9.0,10.0,73,0.00,,,0.00,765,Wunderground v.1.15,2013-04-27 15:40:00,
2013-04-27 10:42:00,58.2,48.8,30.08,SSE,156,5.0,8.0,71,0.00,,,0.00,765,Wunderground v.1.15,2013-04-27 15:42:00,
2013-04-27 10:43:00,57.8,48.5,30.08,SSE,162,6.0,8.0,71,0.00,,,0.00,327,Wunderground v.1.15,2013-04-27 15:43:00,
2013-04-27 10:44:00,57.6,49.0,30.08,SSW,193,4.0,8.0,73,0.00,,,0.00,327,Wunderground v.1.15,2013-04-27 15:44:00,
2013-04-27 10:45:00,57.9,49.3,30.08,South,178,7.0,9.0,73,0.00,,,0.00,327,Wunderground v.1.15,2013-04-27 15:45:00,
2013-04-27 10:47:00,58.0,49.4,30.08,SSW,196,5.0,9.0,73,0.00,,,0.00,350,Wunderground v.1.15,2013-04-27 15:47:00,
2013-04-27 10:49:00,57.8,48.8,30.08,SSW,207,6.0,9.0,72,0.00,,,0.00,350,Wunderground v.1.15,2013-04-27 15:49:00,
2013-04-27 10:51:00,57.6,48.6,30.08,South,182,9.0,9.0,72,0.00,,,0.00,350,Wunderground v.1.15,2013-04-27 15:51:00,
2013-04-27 10:52:00,57.6,49.4,30.08,South,178,8.0,11.0,74,0.00,,,0.00,350,Wunderground v.1.15,2013-04-27 15:52:00,
2013-04-27 10:53:00,57.8,49.6,30.08,South,186,8.0,11.0,74,0.00,,,0.00,828,Wunderground v.1.15,2013-04-27 15:53:00,
2013-04-27 10:54:00,57.9,49.7,30.08,SSE,150,4.0,11.0,74,0.00,,,0.00,828,Wunderground v.1.15,2013-04-27 15:54:00,
2013-04-27 10:55:00,58.0,49.4,30.08,SSW,211,3.0,11.0,73,0.00,,,0.00,828,Wunderground v.1.15,2013-04-27 15:55:00,
2013-04-27 10:56:00,57.8,48.5,30.08,SSW,209,2.0,11.0,71,0.00,,,0.00,828,Wunderground v.1.15,2013-04-27 15:56:00,
2013-04-27 10:59:00,58.3,49.7,30.08,South,177,8.0,11.0,73,0.00,,,0.00,828,Wunderground v.1.15,2013-04-27 15:59:00,
2013-04-27 11:00:00,58.5,49.5,30.08,South,174,3.0,11.0,72,0.00,,,0.00,315,Wunderground v.1.15,2013-04-27 16:00:00,
2013-04-27 11:02:00,57.9,48.6,30.08,SSW,201,7.0,7.0,71,0.00,,,0.00,394,Wunderground v.1.15,2013-04-27 16:02:00,
2013-04-27 11:05:00,58.8,49.8,30.08,South,180,5.0,13.0,72,0.00,,,0.00,867,Wunderground v.1.15,2013-04-27 16:05:00,
2013-04-27 11:08:00,59.5,50.1,30.08,SSE,161,10.0,14.0,71,0.00,,,0.00,821,Wunderground v.1.15,2013-04-27 16:08:00,
2013-04-27 11:10:00,59.8,50.0,30.08,South,182,9.0,14.0,70,0.00,,,0.00,796,Wunderground v.1.15,2013-04-27 16:10:00,
2013-04-27 11:11:00,59.7,49.5,30.08,South,184,4.0,8.0,69,0.00,,,0.00,810,Wunderground v.1.15,2013-04-27 16:11:00,
2013-04-27 11:14:00,60.1,50.3,30.08,SE,136,6.0,8.0,70,0.00,,,0.00,856,Wunderground v.1.15,2013-04-27 16:14:00,
2013-04-27 11:15:00,59.9,49.7,30.08,SSE,156,9.0,9.0,69,0.00,,,0.00,858,Wunderground v.1.15,2013-04-27 16:15:00,
2013-04-27 11:16:00,59.9,49.7,30.08,SSE,161,10.0,10.0,69,0.00,,,0.00,858,Wunderground v.1.15,2013-04-27 16:16:00,
2013-04-27 11:20:00,60.3,48.9,30.08,SE,146,3.0,7.0,66,0.00,,,0.00,831,Wunderground v.1.15,2013-04-27 16:20:00,
2013-04-27 11:21:00,60.1,48.7,30.07,SE,138,6.0,7.0,66,0.00,,,0.00,830,Wunderground v.1.15,2013-04-27 16:21:00,
2013-04-27 11:22:00,60.2,50.0,30.08,SE,136,9.0,9.0,69,0.00,,,0.00,831,Wunderground v.1.15,2013-04-27 16:22:00,
2013-04-27 11:24:00,60.3,49.7,30.07,SSE,165,7.0,11.0,68,0.00,,,0.00,837,Wunderground v.1.15,2013-04-27 16:24:00,
2013-04-27 11:25:00,60.4,49.4,30.07,SSE,160,7.0,12.0,67,0.00,,,0.00,837,Wunderground v.1.15,2013-04-27 16:25:00,
2013-04-27 11:27:00,60.5,49.1,30.07,South,186,9.0,12.0,66,0.00,,,0.00,861,Wunderground v.1.15,2013-04-27 16:27:00,
2013-04-27 11:29:00,61.4,51.1,30.07,ESE,115,9.0,12.0,69,0.00,,,0.00,909,Wunderground v.1.15,2013-04-27 16:29:00,
2013-04-27 11:30:00,61.5,51.2,30.07,ESE,119,8.0,12.0,69,0.00,,,0.00,909,Wunderground v.1.15,2013-04-27 16:30:00,
2013-04-27 11:32:00,61.2,49.3,30.07,SSE,167,9.0,12.0,65,0.00,,,0.00,923,Wunderground v.1.15,2013-04-27 16:32:00,
2013-04-27 11:34:00,61.0,50.0,30.07,South,175,8.0,12.0,67,0.00,,,0.00,914,Wunderground v.1.15,2013-04-27 16:34:00,
2013-04-27 11:36:00,61.2,49.3,30.07,SSE,153,9.0,12.0,65,0.00,,,0.00,914,Wunderground v.1.15,2013-04-27 16:36:00,
2013-04-27 11:38:00,61.0,49.1,30.07,SSE,150,5.0,12.0,65,0.00,,,0.00,710,Wunderground v.1.15,2013-04-27 16:38:00,
2013-04-27 11:39:00,61.0,50.0,30.07,South,173,7.0,12.0,67,0.00,,,0.00,710,Wunderground v.1.15,2013-04-27 16:39:00,
2013-04-27 11:40:00,60.8,49.8,30.07,South,177,5.0,7.0,67,0.00,,,0.00,911,Wunderground v.1.15,2013-04-27 16:40:00,
2013-04-27 11:41:00,60.9,49.9,30.07,SSW,211,7.0,7.0,67,0.00,,,0.00,932,Wunderground v.1.15,2013-04-27 16:41:00,
2013-04-27 11:44:00,60.9,49.9,30.07,South,186,7.0,10.0,67,0.00,,,0.00,1000,Wunderground v.1.15,2013-04-27 16:44:00,
2013-04-27 11:45:00,61.0,49.6,30.07,SSE,167,6.0,10.0,66,0.00,,,0.00,928,Wunderground v.1.15,2013-04-27 16:45:00,
2013-04-27 11:46:00,61.4,49.5,30.07,South,189,6.0,10.0,65,0.00,,,0.00,926,Wunderground v.1.15,2013-04-27 16:46:00,
2013-04-27 11:47:00,61.4,49.5,30.07,SE,140,7.0,10.0,65,0.00,,,0.00,926,Wunderground v.1.15,2013-04-27 16:47:00,
2013-04-27 11:50:00,61.7,50.2,30.07,South,173,4.0,10.0,66,0.00,,,0.00,916,Wunderground v.1.15,2013-04-27 16:50:00,
2013-04-27 11:51:00,61.7,49.4,30.07,South,190,12.0,12.0,64,0.00,,,0.00,916,Wunderground v.1.15,2013-04-27 16:51:00,
2013-04-27 11:54:00,61.7,49.8,30.07,SSE,158,7.0,12.0,65,0.00,,,0.00,916,Wunderground v.1.15,2013-04-27 16:54:00,
2013-04-27 11:56:00,61.1,48.8,30.07,SE,145,10.0,12.0,64,0.00,,,0.00,965,Wunderground v.1.15,2013-04-27 16:56:00,
2013-04-27 11:57:00,61.1,48.8,30.07,SSE,153,8.0,12.0,64,0.00,,,0.00,942,Wunderground v.1.15,2013-04-27 16:57:00,
2013-04-27 11:58:00,61.1,48.8,30.07,South,178,5.0,12.0,64,0.00,,,0.00,946,Wunderground v.1.15,2013-04-27 16:58:00,
2013-04-27 12:01:00,61.1,49.2,30.07,SSE,167,3.0,7.0,65,0.00,,,0.00,944,Wunderground v.1.15,2013-04-27 17:01:00,
2013-04-27 12:02:00,61.2,48.9,30.07,South,181,11.0,11.0,64,0.00,,,0.00,949,Wunderground v.1.15,2013-04-27 17:02:00,
2013-04-27 12:04:00,61.5,49.2,30.06,South,179,5.0,12.0,64,0.00,,,0.00,958,Wunderground v.1.15,2013-04-27 17:04:00,
2013-04-27 12:07:00,61.9,49.2,30.07,SSE,153,6.0,12.0,63,0.00,,,0.00,947,Wunderground v.1.15,2013-04-27 17:07:00,
2013-04-27 12:08:00,61.8,49.1,30.06,SSE,153,5.0,12.0,63,0.00,,,0.00,947,Wunderground v.1.15,2013-04-27 17:08:00,
2013-04-27 12:09:00,61.7,49.0,30.06,SSE,163,3.0,12.0,63,0.00,,,0.00,953,Wunderground v.1.15,2013-04-27 17:09:00,
2013-04-27 12:10:00,61.5,49.2,30.06,ESE,123,9.0,9.0,64,0.00,,,0.00,953,Wunderground v.1.15,2013-04-27 17:10:00,
2013-04-27 12:12:00,61.1,49.7,30.06,SE,131,6.0,9.0,66,0.00,,,0.00,953,Wunderground v.1.15,2013-04-27 17:12:00,
2013-04-27 12:13:00,60.9,48.6,30.06,ESE,107,7.0,9.0,64,0.00,,,0.00,998,Wunderground v.1.15,2013-04-27 17:13:00,
2013-04-27 12:15:00,60.8,49.8,30.06,SSW,199,7.0,9.0,67,0.00,,,0.00,951,Wunderground v.1.15,2013-04-27 17:15:00,
2013-04-27 12:16:00,61.0,50.0,30.06,SSW,205,4.0,9.0,67,0.00,,,0.00,951,Wunderground v.1.15,2013-04-27 17:16:00,
2013-04-27 12:17:00,61.6,49.3,30.06,SE,137,10.0,10.0,64,0.00,,,0.00,967,Wunderground v.1.15,2013-04-27 17:17:00,
2013-04-27 12:20:00,62.0,50.5,30.06,SE,142,4.0,6.0,66,0.00,,,0.00,977,Wunderground v.1.15,2013-04-27 17:20:00,
2013-04-27 12:21:00,62.0,50.5,30.06,SE,142,2.0,6.0,66,0.00,,,0.00,977,Wunderground v.1.15,2013-04-27 17:21:00,
2013-04-27 12:22:00,61.9,49.6,30.06,SE,139,8.0,8.0,64,0.00,,,0.00,977,Wunderground v.1.15,2013-04-27 17:22:00,
2013-04-27 12:27:00,63.2,49.5,30.06,ESE,119,8.0,9.0,61,0.00,,,0.00,932,Wunderground v.1.15,2013-04-27 17:27:00,
2013-04-27 12:28:00,63.3,49.6,30.06,ESE,121,9.0,9.0,61,0.00,,,0.00,932,Wunderground v.1.15,2013-04-27 17:28:00,
2013-04-27 12:29:00,63.4,49.7,30.06,SE,135,7.0,12.0,61,0.00,,,0.00,926,Wunderground v.1.15,2013-04-27 17:29:00,
2013-04-27 12:32:00,63.2,50.0,30.06,SE,136,10.0,12.0,62,0.00,,,0.00,928,Wunderground v.1.15,2013-04-27 17:32:00,
2013-04-27 12:33:00,63.4,50.1,30.06,SSE,148,7.0,12.0,62,0.00,,,0.00,933,Wunderground v.1.15,2013-04-27 17:33:00,
2013-04-27 12:35:00,63.4,49.3,30.05,SE,138,4.0,12.0,60,0.00,,,0.00,933,Wunderground v.1.15,2013-04-27 17:35:00,
2013-04-27 12:38:00,63.1,49.9,30.05,ESE,122,8.0,12.0,62,0.00,,,0.00,932,Wunderground v.1.15,2013-04-27 17:38:00,
2013-04-27 12:40:00,62.8,49.1,30.05,SE,146,5.0,12.0,61,0.00,,,0.00,932,Wunderground v.1.15,2013-04-27 17:40:00,
2013-04-27 12:41:00,62.6,50.2,30.05,East,99,5.0,7.0,64,0.00,,,0.00,928,Wunderground v.1.15,2013-04-27 17:41:00,
2013-04-27 12:43:00,63.1,50.3,30.05,SE,140,8.0,12.0,63,0.00,,,0.00,932,Wunderground v.1.15,2013-04-27 17:43:00,
2013-04-27 12:46:00,63.2,49.5,30.05,SE,138,6.0,14.0,61,0.00,,,0.00,933,Wunderground v.1.15,2013-04-27 17:46:00,
2013-04-27 12:48:00,63.7,50.4,30.05,SE,134,4.0,14.0,62,0.00,,,0.00,930,Wunderground v.1.15,2013-04-27 17:48:00,
2013-04-27 12:50:00,63.9,50.6,30.05,SE,133,8.0,8.0,62,0.00,,,0.00,935,Wunderground v.1.15,2013-04-27 17:50:00,
2013-04-27 12:51:00,63.8,49.6,30.05,East,90,7.0,8.0,60,0.00,,,0.00,933,Wunderground v.1.15,2013-04-27 17:51:00,
2013-04-27 12:53:00,63.6,50.3,30.05,ESE,115,9.0,9.0,62,0.00,,,0.00,940,Wunderground v.1.15,2013-04-27 17:53:00,
2013-04-27 12:54:00,63.5,49.4,30.05,ESE,116,7.0,9.0,60,0.00,,,0.00,939,Wunderground v.1.15,2013-04-27 17:54:00,
2013-04-27 12:55:00,63.2,49.5,30.05,SE,132,6.0,9.0,61,0.00,,,0.00,939,Wunderground v.1.15,2013-04-27 17:55:00,
2013-04-27 12:57:00,63.6,49.9,30.04,SSE,148,7.0,11.0,61,0.00,,,0.00,937,Wunderground v.1.15,2013-04-27 17:57:00,
2013-04-27 13:00:00,64.0,49.8,30.04,SE,146,10.0,10.0,60,0.00,,,0.00,940,Wunderground v.1.15,2013-04-27 18:00:00,
2013-04-27 13:02:00,63.9,49.7,30.04,ESE,117,1.0,10.0,60,0.00,,,0.00,937,Wunderground v.1.15,2013-04-27 18:02:00,
2013-04-27 13:06:00,64.0,50.3,30.04,SSE,153,9.0,10.0,61,0.00,,,0.00,946,Wunderground v.1.15,2013-04-27 18:06:00,
2013-04-27 13:08:00,64.1,49.0,30.04,SSE,160,5.0,11.0,58,0.00,,,0.00,953,Wunderground v.1.15,2013-04-27 18:08:00,
2013-04-27 13:09:00,63.6,49.5,30.04,ESE,103,3.0,11.0,60,0.00,,,0.00,960,Wunderground v.1.15,2013-04-27 18:09:00,
2013-04-27 13:11:00,63.2,49.1,30.04,SE,128,3.0,7.0,60,0.00,,,0.00,954,Wunderground v.1.15,2013-04-27 18:11:00,
2013-04-27 13:12:00,63.1,49.4,30.04,SE,138,4.0,7.0,61,0.00,,,0.00,963,Wunderground v.1.15,2013-04-27 18:12:00,
2013-04-27 13:13:00,62.8,48.7,30.03,SE,138,0.0,7.0,60,0.00,,,0.00,967,Wunderground v.1.15,2013-04-27 18:13:00,
2013-04-27 13:14:00,62.8,48.7,30.03,SE,138,0.0,7.0,60,0.00,,,0.00,967,Wunderground v.1.15,2013-04-27 18:14:00,
2013-04-27 13:15:00,63.0,52.3,30.03,SE,138,2.0,7.0,68,0.00,,,0.00,958,Wunderground v.1.15,2013-04-27 18:15:00,
2013-04-27 13:16:00,63.4,51.4,30.03,South,170,2.0,7.0,65,0.00,,,0.00,923,Wunderground v.1.15,2013-04-27 18:16:00,
2013-04-27 13:18:00,64.3,51.4,30.03,West,273,8.0,8.0,63,0.00,,,0.00,977,Wunderground v.1.15,2013-04-27 18:18:00,
2013-04-27 13:19:00,64.9,50.2,30.03,SE,145,9.0,14.0,59,0.00,,,0.00,981,Wunderground v.1.15,2013-04-27 18:19:00,
2013-04-27 13:20:00,64.9,50.2,30.03,SE,139,7.0,14.0,59,0.00,,,0.00,981,Wunderground v.1.15,2013-04-27 18:20:00,
2013-04-27 13:21:00,65.1,50.9,30.03,SSE,157,12.0,12.0,60,0.00,,,0.00,981,Wunderground v.1.15,2013-04-27 18:21:00,
2013-04-27 13:24:00,65.4,50.7,30.03,SSE,157,11.0,12.0,59,0.00,,,0.00,965,Wunderground v.1.15,2013-04-27 18:24:00,
2013-04-27 13:26:00,65.3,50.1,30.03,SSE,167,9.0,12.0,58,0.00,,,0.00,969,Wunderground v.1.15,2013-04-27 18:26:00,
2013-04-27 13:28:00,64.8,49.2,30.03,SSE,159,2.0,12.0,57,0.00,,,0.00,979,Wunderground v.1.15,2013-04-27 18:28:00,
2013-04-27 13:31:00,64.0,49.4,30.03,SSW,203,7.0,10.0,59,0.00,,,0.00,1037,Wunderground v.1.15,2013-04-27 18:31:00,
2013-04-27 13:32:00,64.0,48.9,30.03,SE,142,2.0,10.0,58,0.00,,,0.00,1037,Wunderground v.1.15,2013-04-27 18:32:00,
2013-04-27 13:33:00,63.8,48.7,30.03,SSE,147,7.0,10.0,58,0.00,,,0.00,1037,Wunderground v.1.15,2013-04-27 18:33:00,
2013-04-27 13:34:00,63.8,50.1,30.03,SE,140,7.0,10.0,61,0.00,,,0.00,1037,Wunderground v.1.15,2013-04-27 18:34:00,
2013-04-27 13:36:00,63.7,49.1,30.03,SE,144,6.0,10.0,59,0.00,,,0.00,404,Wunderground v.1.15,2013-04-27 18:36:00,
2013-04-27 13:37:00,63.5,48.9,30.03,SE,134,4.0,10.0,59,0.00,,,0.00,404,Wunderground v.1.15,2013-04-27 18:37:00,
2013-04-27 13:38:00,63.4,49.3,30.03,ESE,102,2.0,10.0,60,0.00,,,0.00,404,Wunderground v.1.15,2013-04-27 18:38:00,
2013-04-27 13:39:00,63.4,49.7,30.03,ESE,102,2.0,10.0,61,0.00,,,0.00,404,Wunderground v.1.15,2013-04-27 18:39:00,
2013-04-27 13:41:00,63.5,50.2,30.03,SSE,160,4.0,5.0,62,0.00,,,0.00,1046,Wunderground v.1.15,2013-04-27 18:41:00,
2013-04-27 13:42:00,63.8,50.1,30.03,South,185,3.0,6.0,61,0.00,,,0.00,1046,Wunderground v.1.15,2013-04-27 18:42:00,
2013-04-27 13:44:00,64.3,51.4,30.03,WSW,250,4.0,6.0,63,0.00,,,0.00,1046,Wunderground v.1.15,2013-04-27 18:44:00,
2013-04-27 13:45:00,64.7,51.4,30.03,SSW,207,1.0,6.0,62,0.00,,,0.00,754,Wunderground v.1.15,2013-04-27 18:45:00,
2013-04-27 13:46:00,64.7,49.6,30.03,South,190,5.0,6.0,58,0.00,,,0.00,754,Wunderground v.1.15,2013-04-27 18:46:00,
2013-04-27 13:47:00,64.8,49.7,30.03,SSE,161,8.0,8.0,58,0.00,,,0.00,754,Wunderground v.1.15,2013-04-27 18:47:00,
2013-04-27 13:48:00,64.9,50.2,30.03,South,185,3.0,8.0,59,0.00,,,0.00,754,Wunderground v.1.15,2013-04-27 18:48:00,
2013-04-27 13:50:00,64.3,49.7,30.02,SE,133,1.0,4.0,59,0.00,,,0.00,754,Wunderground v.1.15,2013-04-27 18:50:00,
2013-04-27 13:52:00,64.2,50.9,30.03,ESE,115,9.0,9.0,62,0.00,,,0.00,1030,Wunderground v.1.15,2013-04-27 18:52:00,
2013-04-27 13:53:00,64.5,51.2,30.02,SSE,160,4.0,9.0,62,0.00,,,0.00,1021,Wunderground v.1.15,2013-04-27 18:53:00,
2013-04-27 13:55:00,65.6,51.8,30.02,ESE,118,9.0,10.0,61,0.00,,,0.00,1055,Wunderground v.1.15,2013-04-27 18:55:00,
2013-04-27 13:56:00,65.7,51.9,30.02,ESE,122,8.0,10.0,61,0.00,,,0.00,1055,Wunderground v.1.15,2013-04-27 18:56:00,
2013-04-27 13:58:00,65.9,51.6,30.02,SSE,148,4.0,10.0,60,0.00,,,0.00,1046,Wunderground v.1.15,2013-04-27 18:58:00,
2013-04-27 13:59:00,66.4,50.7,30.02,SSE,166,7.0,10.0,57,0.00,,,0.00,1002,Wunderground v.1.15,2013-04-27 18:59:00,
2013-04-27 14:02:00,65.8,49.2,30.02,SSW,207,0.0,6.0,55,0.00,,,0.00,1000,Wunderground v.1.15,2013-04-27 19:02:00,
2013-04-27 14:03:00,65.8,52.0,30.02,SE,125,5.0,6.0,61,0.00,,,0.00,1009,Wunderground v.1.15,2013-04-27 19:03:00,
2013-04-27 14:04:00,65.8,49.7,30.02,SE,143,4.0,6.0,56,0.00,,,0.00,1007,Wunderground v.1.15,2013-04-27 19:04:00,
2013-04-27 14:07:00,65.9,49.8,30.02,South,172,4.0,7.0,56,0.00,,,0.00,990,Wunderground v.1.15,2013-04-27 19:07:00,
2013-04-27 14:08:00,66.0,50.3,30.02,SSW,209,6.0,10.0,57,0.00,,,0.00,972,Wunderground v.1.15,2013-04-27 19:08:00,
2013-04-27 14:09:00,66.1,50.4,30.02,South,178,3.0,10.0,57,0.00,,,0.00,977,Wunderground v.1.15,2013-04-27 19:09:00,
2013-04-27 14:10:00,66.1,50.9,30.02,SSW,206,6.0,10.0,58,0.00,,,0.00,977,Wunderground v.1.15,2013-04-27 19:10:00,
2013-04-27 14:12:00,66.1,50.4,30.02,SSE,153,5.0,7.0,57,0.00,,,0.00,981,Wunderground v.1.15,2013-04-27 19:12:00,
2013-04-27 14:14:00,65.8,50.1,30.02,ESE,107,4.0,7.0,57,0.00,,,0.00,991,Wunderground v.1.15,2013-04-27 19:14:00,
2013-04-27 14:15:00,65.7,50.0,30.02,SE,124,3.0,7.0,57,0.00,,,0.00,991,Wunderground v.1.15,2013-04-27 19:15:00,
2013-04-27 14:16:00,65.6,50.4,30.02,SE,125,0.0,7.0,58,0.00,,,0.00,998,Wunderground v.1.15,2013-04-27 19:16:00,
2013-04-27 14:19:00,66.3,51.5,30.02,ESE,121,5.0,7.0,59,0.00,,,0.00,998,Wunderground v.1.15,2013-04-27 19:19:00,
2013-04-27 14:20:00,66.4,50.2,30.01,SE,146,4.0,7.0,56,0.00,,,0.00,998,Wunderground v.1.15,2013-04-27 19:20:00,
2013-04-27 14:23:00,65.8,49.2,30.01,SE,130,6.0,9.0,55,0.00,,,0.00,258,Wunderground v.1.15,2013-04-27 19:23:00,
2013-04-27 14:25:00,65.2,50.0,30.01,SW,225,5.0,9.0,58,0.00,,,0.00,258,Wunderground v.1.15,2013-04-27 19:25:00,
2013-04-27 14:26:00,65.2,50.0,30.01,South,172,3.0,9.0,58,0.00,,,0.00,946,Wunderground v.1.15,2013-04-27 19:26:00,
2013-04-27 14:27:00,65.4,49.8,30.01,SSW,201,8.0,9.0,57,0.00,,,0.00,935,Wunderground v.1.15,2013-04-27 19:27:00,
2013-04-27 14:29:00,65.9,50.7,30.01,SW,217,8.0,9.0,58,0.00,,,0.00,939,Wunderground v.1.15,2013-04-27 19:29:00,
2013-04-27 14:31:00,66.2,50.5,30.01,SW,228,5.0,8.0,57,0.00,,,0.00,935,Wunderground v.1.15,2013-04-27 19:31:00,
2013-04-27 14:32:00,66.3,50.6,30.01,SW,225,4.0,8.0,57,0.00,,,0.00,933,Wunderground v.1.15,2013-04-27 19:32:00,
2013-04-27 14:35:00,66.5,50.3,30.01,West,276,4.0,8.0,56,0.00,,,0.00,932,Wunderground v.1.15,2013-04-27 19:35:00,
2013-04-27 14:36:00,66.3,51.5,30.01,West,281,0.0,8.0,59,0.00,,,0.00,944,Wunderground v.1.15,2013-04-27 19:36:00,
2013-04-27 14:37:00,66.1,50.4,30.01,SW,219,3.0,8.0,57,0.00,,,0.00,951,Wunderground v.1.15,2013-04-27 19:37:00,
2013-04-27 14:38:00,66.2,50.0,30.01,South,169,8.0,8.0,56,0.00,,,0.00,958,Wunderground v.1.15,2013-04-27 19:38:00,
2013-04-27 14:39:00,66.3,51.1,30.01,SE,146,0.0,8.0,58,0.00,,,0.00,962,Wunderground v.1.15,2013-04-27 19:39:00,
2013-04-27 14:41:00,66.4,50.2,30.01,SE,133,5.0,9.0,56,0.00,,,0.00,953,Wunderground v.1.15,2013-04-27 19:41:00,
2013-04-27 14:43:00,66.5,50.8,30.01,SSW,199,7.0,9.0,57,0.00,,,0.00,949,Wunderground v.1.15,2013-04-27 19:43:00,
2013-04-27 14:46:00,66.2,49.6,30.01,SSW,202,5.0,9.0,55,0.00,,,0.00,949,Wunderground v.1.15,2013-04-27 19:46:00,
2013-04-27 14:47:00,66.0,48.9,30.01,SSW,209,0.0,9.0,54,0.00,,,0.00,923,Wunderground v.1.15,2013-04-27 19:47:00,
2013-04-27 14:48:00,65.9,48.8,30.01,SSW,209,1.0,9.0,54,0.00,,,0.00,923,Wunderground v.1.15,2013-04-27 19:48:00,
2013-04-27 14:50:00,65.8,49.2,30.01,South,185,3.0,4.0,55,0.00,,,0.00,911,Wunderground v.1.15,2013-04-27 19:50:00,
2013-04-27 14:52:00,65.7,51.0,30.01,South,185,0.0,4.0,59,0.00,,,0.00,904,Wunderground v.1.15,2013-04-27 19:52:00,
2013-04-27 14:53:00,65.8,51.1,30.01,South,185,0.0,4.0,59,0.00,,,0.00,904,Wunderground v.1.15,2013-04-27 19:53:00,
2013-04-27 14:54:00,65.8,50.6,30.00,East,82,3.0,4.0,58,0.00,,,0.00,911,Wunderground v.1.15,2013-04-27 19:54:00,
2013-04-27 14:55:00,65.6,50.0,30.00,East,80,1.0,4.0,57,0.00,,,0.00,933,Wunderground v.1.15,2013-04-27 19:55:00,
2013-04-27 14:58:00,66.7,52.8,30.00,South,183,3.0,4.0,61,0.00,,,0.00,944,Wunderground v.1.15,2013-04-27 19:58:00,
2013-04-27 14:59:00,66.6,49.9,30.00,South,181,2.0,4.0,55,0.00,,,0.00,932,Wunderground v.1.15,2013-04-27 19:59:00,
2013-04-27 15:00:00,66.6,49.4,30.00,South,181,0.0,4.0,54,0.00,,,0.00,932,Wunderground v.1.15,2013-04-27 20:00:00,
2013-04-27 15:03:00,67.0,51.3,30.00,SSW,212,3.0,6.0,57,0.00,,,0.00,932,Wunderground v.1.15,2013-04-27 20:03:00,
2013-04-27 15:05:00,67.1,50.9,30.00,ESE,112,0.0,15.0,56,0.00,,,0.00,932,Wunderground v.1.15,2013-04-27 20:05:00,
2013-04-27 15:07:00,66.6,50.4,30.00,ESE,105,3.0,15.0,56,0.00,,,0.00,972,Wunderground v.1.15,2013-04-27 20:07:00,
2013-04-27 15:09:00,66.6,51.4,30.00,ESE,105,4.0,15.0,58,0.00,,,0.00,979,Wunderground v.1.15,2013-04-27 20:09:00,
2013-04-27 15:11:00,66.4,49.7,30.00,SE,136,6.0,6.0,55,0.00,,,0.00,962,Wunderground v.1.15,2013-04-27 20:11:00,
2013-04-27 15:12:00,66.4,51.2,30.00,ESE,121,7.0,10.0,58,0.00,,,0.00,962,Wunderground v.1.15,2013-04-27 20:12:00,
2013-04-27 15:14:00,66.6,51.4,29.99,SSW,198,6.0,10.0,58,0.00,,,0.00,923,Wunderground v.1.15,2013-04-27 20:14:00,
2013-04-27 15:16:00,67.3,52.0,29.99,SSE,154,6.0,10.0,58,0.00,,,0.00,969,Wunderground v.1.15,2013-04-27 20:16:00,
2013-04-27 15:18:00,67.6,50.4,29.99,SSW,202,5.0,10.0,54,0.00,,,0.00,967,Wunderground v.1.15,2013-04-27 20:18:00,
2013-04-27 15:19:00,67.4,49.2,29.99,South,189,1.0,10.0,52,0.00,,,0.00,939,Wunderground v.1.15,2013-04-27 20:19:00,
2013-04-27 15:20:00,67.3,49.1,29.99,South,188,1.0,4.0,52,0.00,,,0.00,946,Wunderground v.1.15,2013-04-27 20:20:00,
2013-04-27 15:22:00,66.9,49.2,29.99,SW,234,3.0,5.0,53,0.00,,,0.00,949,Wunderground v.1.15,2013-04-27 20:22:00,
2013-04-27 15:24:00,66.6,48.9,29.99,SSE,147,4.0,6.0,53,0.00,,,0.00,933,Wunderground v.1.15,2013-04-27 20:24:00,
2013-04-27 15:26:00,67.0,49.8,29.99,South,183,4.0,7.0,54,0.00,,,0.00,925,Wunderground v.1.15,2013-04-27 20:26:00,
2013-04-27 15:28:00,67.3,51.1,29.99,SSW,212,5.0,8.0,56,0.00,,,0.00,914,Wunderground v.1.15,2013-04-27 20:28:00,
2013-04-27 15:29:00,67.7,50.5,29.99,SSW,211,7.0,8.0,54,0.00,,,0.00,914,Wunderground v.1.15,2013-04-27 20:29:00,
2013-04-27 15:30:00,67.7,49.4,29.99,SW,217,4.0,4.0,52,0.00,,,0.00,909,Wunderground v.1.15,2013-04-27 20:30:00,
2013-04-27 15:31:00,67.7,50.9,29.99,SSW,195,7.0,7.0,55,0.00,,,0.00,909,Wunderground v.1.15,2013-04-27 20:31:00,
2013-04-27 15:32:00,67.7,49.4,29.99,SSW,195,4.0,7.0,52,0.00,,,0.00,893,Wunderground v.1.15,2013-04-27 20:32:00,
2013-04-27 15:35:00,67.3,49.6,29.99,WNW,283,4.0,7.0,53,0.00,,,0.00,875,Wunderground v.1.15,2013-04-27 20:35:00,
2013-04-27 15:37:00,66.9,49.2,29.98,WNW,303,1.0,7.0,53,0.00,,,0.00,896,Wunderground v.1.15,2013-04-27 20:37:00,
2013-04-27 15:38:00,66.7,51.0,29.98,NW,309,0.0,7.0,57,0.00,,,0.00,900,Wunderground v.1.15,2013-04-27 20:38:00,
2013-04-27 15:40:00,67.4,51.6,29.99,NE,55,8.0,8.0,57,0.00,,,0.00,874,Wunderground v.1.15,2013-04-27 20:40:00,
2013-04-27 15:43:00,67.6,50.9,29.98,SE,137,3.0,9.0,55,0.00,,,0.00,882,Wunderground v.1.15,2013-04-27 20:43:00,
2013-04-27 15:44:00,67.3,50.1,29.98,ESE,121,1.0,9.0,54,0.00,,,0.00,898,Wunderground v.1.15,2013-04-27 20:44:00,
2013-04-27 15:46:00,67.2,50.5,29.98,ESE,116,7.0,10.0,55,0.00,,,0.00,900,Wunderground v.1.15,2013-04-27 20:46:00,
2013-04-27 15:47:00,67.3,50.6,29.98,ESE,113,7.0,10.0,55,0.00,,,0.00,895,Wunderground v.1.15,2013-04-27 20:47:00,
2013-04-27 15:48:00,67.6,51.8,29.98,South,183,5.0,10.0,57,0.00,,,0.00,882,Wunderground v.1.15,2013-04-27 20:48:00,
2013-04-27 15:49:00,67.6,51.8,29.98,South,180,3.0,10.0,57,0.00,,,0.00,882,Wunderground v.1.15,2013-04-27 20:49:00,
2013-04-27 15:50:00,67.9,50.6,29.98,SSW,198,4.0,5.0,54,0.00,,,0.00,872,Wunderground v.1.15,2013-04-27 20:50:00,
2013-04-27 15:52:00,67.9,49.6,29.98,SSE,149,7.0,7.0,52,0.00,,,0.00,870,Wunderground v.1.15,2013-04-27 20:52:00,
2013-04-27 15:54:00,68.0,51.2,29.98,SE,131,3.0,7.0,55,0.00,,,0.00,854,Wunderground v.1.15,2013-04-27 20:54:00,
2013-04-27 15:56:00,68.1,50.8,29.98,SSE,155,7.0,7.0,54,0.00,,,0.00,823,Wunderground v.1.15,2013-04-27 20:56:00,
2013-04-27 15:57:00,68.3,49.5,29.97,South,169,6.0,9.0,51,0.00,,,0.00,817,Wunderground v.1.15,2013-04-27 20:57:00,
2013-04-27 15:59:00,68.2,50.9,29.97,ESE,119,10.0,10.0,54,0.00,,,0.00,810,Wunderground v.1.15,2013-04-27 20:59:00,
2013-04-27 16:00:00,68.3,51.0,29.97,SE,129,9.0,9.0,54,0.00,,,0.00,807,Wunderground v.1.15,2013-04-27 21:00:00,
2013-04-27 16:01:00,68.2,50.4,29.97,SE,144,6.0,12.0,53,0.00,,,0.00,796,Wunderground v.1.15,2013-04-27 21:01:00,
2013-04-27 16:02:00,68.0,49.2,29.97,SE,127,2.0,12.0,51,0.00,,,0.00,795,Wunderground v.1.15,2013-04-27 21:02:00,
2013-04-27 16:04:00,68.0,50.7,29.97,ENE,75,7.0,12.0,54,0.00,,,0.00,780,Wunderground v.1.15,2013-04-27 21:04:00,
2013-04-27 16:07:00,67.7,50.5,29.97,South,185,4.0,12.0,54,0.00,,,0.00,772,Wunderground v.1.15,2013-04-27 21:07:00,
2013-04-27 16:08:00,67.7,50.5,29.97,South,184,3.0,12.0,54,0.00,,,0.00,766,Wunderground v.1.15,2013-04-27 21:08:00,
2013-04-27 16:09:00,67.5,49.3,29.97,SSW,200,0.0,12.0,52,0.00,,,0.00,763,Wunderground v.1.15,2013-04-27 21:09:00,
2013-04-27 16:13:00,67.5,50.8,29.97,WSW,246,1.0,4.0,55,0.00,,,0.00,788,Wunderground v.1.15,2013-04-27 21:13:00,
2013-04-27 16:14:00,67.6,50.9,29.97,WSW,246,0.0,4.0,55,0.00,,,0.00,788,Wunderground v.1.15,2013-04-27 21:14:00,
2013-04-27 16:17:00,67.9,50.6,29.97,ESE,109,4.0,4.0,54,0.00,,,0.00,786,Wunderground v.1.15,2013-04-27 21:17:00,
2013-04-27 16:19:00,67.7,49.9,29.97,East,96,3.0,7.0,53,0.00,,,0.00,784,Wunderground v.1.15,2013-04-27 21:19:00,
2013-04-27 16:20:00,67.6,50.4,29.97,SE,124,6.0,7.0,54,0.00,,,0.00,784,Wunderground v.1.15,2013-04-27 21:20:00,
2013-04-27 16:22:00,68.0,51.2,29.97,SE,141,6.0,8.0,55,0.00,,,0.00,802,Wunderground v.1.15,2013-04-27 21:22:00,
2013-04-27 16:24:00,68.0,50.7,29.97,ESE,123,3.0,8.0,54,0.00,,,0.00,805,Wunderground v.1.15,2013-04-27 21:24:00,
2013-04-27 16:25:00,68.0,50.2,29.97,ESE,122,3.0,8.0,53,0.00,,,0.00,802,Wunderground v.1.15,2013-04-27 21:25:00,
2013-04-27 16:27:00,67.9,51.1,29.97,SSE,168,4.0,8.0,55,0.00,,,0.00,786,Wunderground v.1.15,2013-04-27 21:27:00,
2013-04-27 16:28:00,68.1,49.8,29.97,SSE,157,0.0,8.0,52,0.00,,,0.00,777,Wunderground v.1.15,2013-04-27 21:28:00,
2013-04-27 16:30:00,68.4,52.6,29.96,ESE,113,5.0,8.0,57,0.00,,,0.00,773,Wunderground v.1.15,2013-04-27 21:30:00,
2013-04-27 16:31:00,68.6,51.8,29.96,ESE,115,8.0,10.0,55,0.00,,,0.00,775,Wunderground v.1.15,2013-04-27 21:31:00,
2013-04-27 16:32:00,68.6,51.8,29.96,ESE,123,4.0,10.0,55,0.00,,,0.00,777,Wunderground v.1.15,2013-04-27 21:32:00,
2013-04-27 16:33:00,68.3,49.5,29.96,ESE,109,7.0,10.0,51,0.00,,,0.00,761,Wunderground v.1.15,2013-04-27 21:33:00,
2013-04-27 16:34:00,68.2,51.4,29.96,ENE,76,5.0,10.0,55,0.00,,,0.00,752,Wunderground v.1.15,2013-04-27 21:34:00,
2013-04-27 16:35:00,68.1,50.8,29.96,East,96,7.0,10.0,54,0.00,,,0.00,740,Wunderground v.1.15,2013-04-27 21:35:00,
2013-04-27 16:37:00,67.8,50.0,29.96,East,92,5.0,10.0,53,0.00,,,0.00,729,Wunderground v.1.15,2013-04-27 21:37:00,
2013-04-27 16:39:00,67.6,50.9,29.96,ENE,62,1.0,10.0,55,0.00,,,0.00,735,Wunderground v.1.15,2013-04-27 21:39:00,
2013-04-27 16:40:00,67.7,51.4,29.96,East,82,2.0,6.0,56,0.00,,,0.00,740,Wunderground v.1.15,2013-04-27 21:40:00,
2013-04-27 16:42:00,68.2,50.4,29.96,SE,136,7.0,11.0,53,0.00,,,0.00,744,Wunderground v.1.15,2013-04-27 21:42:00,
2013-04-27 16:44:00,68.5,50.7,29.96,SSE,149,4.0,11.0,53,0.00,,,0.00,726,Wunderground v.1.15,2013-04-27 21:44:00,
2013-04-27 16:45:00,68.5,50.7,29.96,SE,130,7.0,11.0,53,0.00,,,0.00,696,Wunderground v.1.15,2013-04-27 21:45:00,
2013-04-27 16:48:00,67.9,49.1,29.96,East,97,3.0,11.0,51,0.00,,,0.00,197,Wunderground v.1.15,2013-04-27 21:48:00,
2013-04-27 16:49:00,67.6,49.9,29.96,ESE,106,7.0,11.0,53,0.00,,,0.00,183,Wunderground v.1.15,2013-04-27 21:49:00,
2013-04-27 16:50:00,67.3,49.6,29.96,SSE,155,5.0,6.0,53,0.00,,,0.00,186,Wunderground v.1.15,2013-04-27 21:50:00,
2013-04-27 16:52:00,67.0,48.8,29.95,ESE,123,2.0,6.0,52,0.00,,,0.00,171,Wunderground v.1.15,2013-04-27 21:52:00,
2013-04-27 16:53:00,66.7,49.0,29.96,SE,137,6.0,6.0,53,0.00,,,0.00,158,Wunderground v.1.15,2013-04-27 21:53:00,
2013-04-27 16:54:00,66.4,48.7,29.95,SSE,155,3.0,6.0,53,0.00,,,0.00,162,Wunderground v.1.15,2013-04-27 21:54:00,
2013-04-27 16:55:00,66.3,48.7,29.95,SE,127,2.0,6.0,53,0.00,,,0.00,172,Wunderground v.1.15,2013-04-27 21:55:00,
2013-04-27 16:56:00,66.3,48.7,29.95,SE,127,1.0,6.0,53,0.00,,,0.00,172,Wunderground v.1.15,2013-04-27 21:56:00,
2013-04-27 17:00:00,66.1,48.5,29.95,ESE,119,4.0,4.0,53,0.00,,,0.00,156,Wunderground v.1.15,2013-04-27 22:00:00,
2013-04-27 17:01:00,66.1,49.0,29.95,ESE,119,4.0,4.0,54,0.00,,,0.00,151,Wunderground v.1.15,2013-04-27 22:01:00,
2013-04-27 17:06:00,65.8,49.7,29.95,ESE,118,0.0,4.0,56,0.00,,,0.00,156,Wunderground v.1.15,2013-04-27 22:06:00,
2013-04-27 17:07:00,65.8,50.1,29.95,ESE,118,2.0,4.0,57,0.00,,,0.00,158,Wunderground v.1.15,2013-04-27 22:07:00,
2013-04-27 17:08:00,65.9,49.3,29.95,ESE,118,1.0,4.0,55,0.00,,,0.00,158,Wunderground v.1.15,2013-04-27 22:08:00,
2013-04-27 17:11:00,66.0,48.9,29.95,ESE,115,0.0,3.0,54,0.00,,,0.00,144,Wunderground v.1.15,2013-04-27 22:11:00,
2013-04-27 17:13:00,65.9,49.8,29.95,East,93,3.0,5.0,56,0.00,,,0.00,139,Wunderground v.1.15,2013-04-27 22:13:00,
2013-04-27 17:14:00,65.8,49.7,29.95,East,94,2.0,5.0,56,0.00,,,0.00,144,Wunderground v.1.15,2013-04-27 22:14:00,
2013-04-27 17:16:00,65.8,49.2,29.95,East,94,2.0,5.0,55,0.00,,,0.00,151,Wunderground v.1.15,2013-04-27 22:16:00,
2013-04-27 17:17:00,65.8,49.2,29.95,SE,134,3.0,5.0,55,0.00,,,0.00,141,Wunderground v.1.15,2013-04-27 22:17:00,
2013-04-27 17:18:00,65.9,49.3,29.95,ESE,121,4.0,5.0,55,0.00,,,0.00,162,Wunderground v.1.15,2013-04-27 22:18:00,
2013-04-27 17:20:00,66.0,49.4,29.95,SE,134,3.0,5.0,55,0.00,,,0.00,158,Wunderground v.1.15,2013-04-27 22:20:00,
2013-04-27 17:22:00,66.0,48.4,29.94,SE,134,2.0,5.0,53,0.00,,,0.00,155,Wunderground v.1.15,2013-04-27 22:22:00,
2013-04-27 17:23:00,66.0,49.4,29.95,ESE,121,4.0,5.0,55,0.00,,,0.00,146,Wunderground v.1.15,2013-04-27 22:23:00,
2013-04-27 17:24:00,66.0,49.4,29.94,SE,133,4.0,5.0,55,0.00,,,0.00,142,Wunderground v.1.15,2013-04-27 22:24:00,
2013-04-27 17:25:00,66.2,49.1,29.95,ESE,121,5.0,6.0,54,0.00,,,0.00,146,Wunderground v.1.15,2013-04-27 22:25:00,
2013-04-27 17:26:00,66.2,49.1,29.94,ESE,119,2.0,6.0,54,0.00,,,0.00,146,Wunderground v.1.15,2013-04-27 22:26:00,
2013-04-27 17:28:00,66.3,50.6,29.94,SE,139,5.0,7.0,57,0.00,,,0.00,200,Wunderground v.1.15,2013-04-27 22:28:00,
2013-04-27 17:29:00,66.5,49.3,29.94,ESE,121,7.0,7.0,54,0.00,,,0.00,519,Wunderground v.1.15,2013-04-27 22:29:00,
2013-04-27 17:31:00,66.8,49.1,29.94,SE,126,2.0,4.0,53,0.00,,,0.00,480,Wunderground v.1.15,2013-04-27 22:31:00,
2013-04-27 17:34:00,67.2,50.0,29.94,SE,138,5.0,5.0,54,0.00,,,0.00,211,Wunderground v.1.15,2013-04-27 22:34:00,
2013-04-27 17:35:00,67.2,50.0,29.94,SE,144,3.0,6.0,54,0.00,,,0.00,211,Wunderground v.1.15,2013-04-27 22:35:00,
2013-04-27 17:38:00,67.1,48.9,29.94,ESE,112,3.0,6.0,52,0.00,,,0.00,461,Wunderground v.1.15,2013-04-27 22:38:00,
2013-04-27 17:39:00,67.2,50.0,29.94,SSE,154,5.0,6.0,54,0.00,,,0.00,383,Wunderground v.1.15,2013-04-27 22:39:00,
2013-04-27 17:41:00,67.1,49.9,29.94,ESE,104,3.0,3.0,54,0.00,,,0.00,162,Wunderground v.1.15,2013-04-27 22:41:00,
2013-04-27 17:42:00,66.8,48.6,29.94,ESE,105,2.0,3.0,52,0.00,,,0.00,109,Wunderground v.1.15,2013-04-27 22:42:00,
2013-04-27 17:43:00,66.8,49.1,29.94,South,175,5.0,5.0,53,0.00,,,0.00,109,Wunderground v.1.15,2013-04-27 22:43:00,
2013-04-27 17:44:00,66.6,48.9,29.94,South,174,3.0,5.0,53,0.00,,,0.00,114,Wunderground v.1.15,2013-04-27 22:44:00,
2013-04-27 17:46:00,66.4,48.7,29.94,SSE,148,4.0,5.0,53,0.00,,,0.00,148,Wunderground v.1.15,2013-04-27 22:46:00,
2013-04-27 17:48:00,66.4,49.2,29.94,SE,142,5.0,5.0,54,0.00,,,0.00,406,Wunderground v.1.15,2013-04-27 22:48:00,
2013-04-27 17:49:00,66.5,49.8,29.94,SE,124,6.0,6.0,55,0.00,,,0.00,378,Wunderground v.1.15,2013-04-27 22:49:00,
2013-04-27 17:51:00,66.6,48.9,29.94,SE,130,7.0,7.0,53,0.00,,,0.00,373,Wunderground v.1.15,2013-04-27 22:51:00,
2013-04-27 17:54:00,66.7,50.0,29.94,SE,132,3.0,7.0,55,0.00,,,0.00,397,Wunderground v.1.15,2013-04-27 22:54:00,
2013-04-27 17:56:00,66.8,49.6,29.94,East,88,3.0,7.0,54,0.00,,,0.00,392,Wunderground v.1.15,2013-04-27 22:56:00,
2013-04-27 17:57:00,66.8,49.1,29.94,East,94,6.0,7.0,53,0.00,,,0.00,392,Wunderground v.1.15,2013-04-27 22:57:00,
2013-04-27 17:59:00,66.8,49.1,29.94,ESE,118,7.0,7.0,53,0.00,,,0.00,380,Wunderground v.1.15,2013-04-27 22:59:00,
2013-04-27 18:00:00,66.9,49.7,29.94,ESE,121,5.0,5.0,54,0.00,,,0.00,380,Wunderground v.1.15,2013-04-27 23:00:00,
2013-04-27 18:03:00,66.9,49.2,29.94,East,101,5.0,8.0,53,0.00,,,0.00,362,Wunderground v.1.15,2013-04-27 23:03:00,
2013-04-27 18:04:00,67.0,50.3,29.94,SE,131,6.0,8.0,55,0.00,,,0.00,355,Wunderground v.1.15,2013-04-27 23:04:00,
2013-04-27 18:05:00,67.0,49.3,29.94,South,169,6.0,8.0,53,0.00,,,0.00,355,Wunderground v.1.15,2013-04-27 23:05:00,
2013-04-27 18:06:00,67.0,49.3,29.94,SSE,154,4.0,8.0,53,0.00,,,0.00,355,Wunderground v.1.15,2013-04-27 23:06:00,
2013-04-27 18:08:00,67.1,49.4,29.94,SE,137,5.0,8.0,53,0.00,,,0.00,350,Wunderground v.1.15,2013-04-27 23:08:00,
2013-04-27 18:09:00,67.1,49.4,29.94,SSE,168,2.0,8.0,53,0.00,,,0.00,338,Wunderground v.1.15,2013-04-27 23:09:00,
2013-04-27 18:11:00,66.9,49.7,29.94,East,95,7.0,7.0,54,0.00,,,0.00,330,Wunderground v.1.15,2013-04-27 23:11:00,
2013-04-27 18:13:00,66.8,49.6,29.94,East,94,5.0,7.0,54,0.00,,,0.00,325,Wunderground v.1.15,2013-04-27 23:13:00,
2013-04-27 18:14:00,66.7,48.5,29.94,ESE,105,0.0,7.0,52,0.00,,,0.00,320,Wunderground v.1.15,2013-04-27 23:14:00,
2013-04-27 18:15:00,66.6,48.4,29.94,SE,138,5.0,7.0,52,0.00,,,0.00,315,Wunderground v.1.15,2013-04-27 23:15:00,
2013-04-27 18:17:00,66.6,49.4,29.94,East,91,6.0,7.0,54,0.00,,,0.00,311,Wunderground v.1.15,2013-04-27 23:17:00,
2013-04-27 18:19:00,66.7,49.5,29.94,ESE,119,3.0,7.0,54,0.00,,,0.00,297,Wunderground v.1.15,2013-04-27 23:19:00,
2013-04-27 18:20:00,66.7,49.0,29.94,ESE,109,4.0,7.0,53,0.00,,,0.00,295,Wunderground v.1.15,2013-04-27 23:20:00,
2013-04-27 18:24:00,66.6,48.9,29.93,SE,132,5.0,7.0,53,0.00,,,0.00,285,Wunderground v.1.15,2013-04-27 23:24:00,
2013-04-27 18:25:00,66.7,49.0,29.93,ESE,115,3.0,7.0,53,0.00,,,0.00,281,Wunderground v.1.15,2013-04-27 23:25:00,
2013-04-27 18:26:00,66.7,49.5,29.93,ESE,108,5.0,9.0,54,0.00,,,0.00,278,Wunderground v.1.15,2013-04-27 23:26:00,
2013-04-27 18:30:00,66.7,49.0,29.93,SE,126,5.0,9.0,53,0.00,,,0.00,257,Wunderground v.1.15,2013-04-27 23:30:00,
2013-04-27 18:31:00,66.7,48.5,29.93,SE,124,4.0,6.0,52,0.00,,,0.00,253,Wunderground v.1.15,2013-04-27 23:31:00,
2013-04-27 18:35:00,66.5,49.3,29.93,ESE,115,4.0,6.0,54,0.00,,,0.00,239,Wunderground v.1.15,2013-04-27 23:35:00,
2013-04-27 18:36:00,66.5,48.8,29.93,ESE,108,3.0,6.0,53,0.00,,,0.00,236,Wunderground v.1.15,2013-04-27 23:36:00,
2013-04-27 18:37:00,66.4,48.7,29.93,SE,132,4.0,7.0,53,0.00,,,0.00,230,Wunderground v.1.15,2013-04-27 23:37:00,
2013-04-27 18:40:00,66.5,48.8,29.93,SSE,149,4.0,4.0,53,0.00,,,0.00,225,Wunderground v.1.15,2013-04-27 23:40:00,
2013-04-27 18:41:00,66.5,48.8,29.93,ESE,119,9.0,9.0,53,0.00,,,0.00,220,Wunderground v.1.15,2013-04-27 23:41:00,
2013-04-27 18:42:00,66.6,48.4,29.93,East,101,6.0,9.0,52,0.00,,,0.00,213,Wunderground v.1.15,2013-04-27 23:42:00,
2013-04-27 18:46:00,66.4,48.2,29.93,ESE,109,4.0,9.0,52,0.00,,,0.00,197,Wunderground v.1.15,2013-04-27 23:46:00,
2013-04-27 18:47:00,66.3,48.7,29.93,ESE,110,9.0,9.0,53,0.00,,,0.00,193,Wunderground v.1.15,2013-04-27 23:47:00,
2013-04-27 18:48:00,66.3,48.1,29.93,ESE,117,3.0,9.0,52,0.00,,,0.00,190,Wunderground v.1.15,2013-04-27 23:48:00,
2013-04-27 18:51:00,66.3,48.1,29.93,ESE,107,7.0,7.0,52,0.00,,,0.00,178,Wunderground v.1.15,2013-04-27 23:51:00,
2013-04-27 18:53:00,66.2,48.0,29.93,ESE,109,5.0,7.0,52,0.00,,,0.00,171,Wunderground v.1.15,2013-04-27 23:53:00,
2013-04-27 18:54:00,66.2,48.6,29.93,East,91,5.0,7.0,53,0.00,,,0.00,169,Wunderground v.1.15,2013-04-27 23:54:00,
2013-04-27 18:55:00,66.1,48.5,29.92,SE,129,6.0,7.0,53,0.00,,,0.00,162,Wunderground v.1.15,2013-04-27 23:55:00,
2013-04-27 18:57:00,66.0,48.9,29.92,SE,124,5.0,7.0,54,0.00,,,0.00,155,Wunderground v.1.15,2013-04-27 23:57:00,
2013-04-27 18:58:00,66.0,48.4,29.92,SE,127,4.0,7.0,53,0.00,,,0.00,151,Wunderground v.1.15,2013-04-27 23:58:00,
2013-04-27 19:00:00,66.0,48.9,29.92,ESE,102,8.0,8.0,54,0.00,,,0.00,144,Wunderground v.1.15,2013-04-28 00:00:00,
2013-04-27 19:03:00,66.0,48.9,29.92,SE,125,4.0,7.0,54,0.00,,,0.00,134,Wunderground v.1.15,2013-04-28 00:03:00,
2013-04-27 19:05:00,66.0,48.4,29.92,SE,141,6.0,8.0,53,0.00,,,0.00,125,Wunderground v.1.15,2013-04-28 00:05:00,
2013-04-27 19:09:00,65.8,48.2,29.92,SSE,155,6.0,10.0,53,0.00,,,0.00,113,Wunderground v.1.15,2013-04-28 00:09:00,
2013-04-27 19:10:00,65.8,48.2,29.92,SE,134,6.0,10.0,53,0.00,,,0.00,109,Wunderground v.1.15,2013-04-28 00:10:00,
2013-04-27 19:14:00,65.7,48.1,29.92,SE,139,6.0,6.0,53,0.00,,,0.00,97,Wunderground v.1.15,2013-04-28 00:14:00,
2013-04-27 19:15:00,65.7,48.1,29.92,SE,128,5.0,6.0,53,0.00,,,0.00,93,Wunderground v.1.15,2013-04-28 00:15:00,
2013-04-27 19:19:00,65.5,48.4,29.92,SE,126,4.0,6.0,54,0.00,,,0.00,83,Wunderground v.1.15,2013-04-28 00:19:00,
2013-04-27 19:20:00,65.4,47.8,29.92,ESE,120,5.0,5.0,53,0.00,,,0.00,79,Wunderground v.1.15,2013-04-28 00:20:00,
2013-04-27 19:21:00,65.4,47.8,29.92,SE,128,4.0,5.0,53,0.00,,,0.00,77,Wunderground v.1.15,2013-04-28 00:21:00,
2013-04-27 19:23:00,65.3,47.7,29.92,ESE,115,3.0,5.0,53,0.00,,,0.00,72,Wunderground v.1.15,2013-04-28 00:23:00,
2013-04-27 19:26:00,65.2,48.1,29.92,SE,136,3.0,5.0,54,0.00,,,0.00,63,Wunderground v.1.15,2013-04-28 00:26:00,
2013-04-27 19:27:00,65.2,48.1,29.92,ESE,123,2.0,5.0,54,0.00,,,0.00,63,Wunderground v.1.15,2013-04-28 00:27:00,
2013-04-27 19:28:00,65.1,48.0,29.92,ESE,111,4.0,7.0,54,0.00,,,0.00,58,Wunderground v.1.15,2013-04-28 00:28:00,
2013-04-27 19:29:00,65.0,47.9,29.92,ESE,111,4.0,7.0,54,0.00,,,0.00,58,Wunderground v.1.15,2013-04-28 00:29:00,
2013-04-27 19:32:00,64.9,47.9,29.92,ESE,123,4.0,7.0,54,0.00,,,0.00,51,Wunderground v.1.15,2013-04-28 00:32:00,
2013-04-27 19:34:00,64.9,47.9,29.92,ESE,121,2.0,7.0,54,0.00,,,0.00,47,Wunderground v.1.15,2013-04-28 00:34:00,
2013-04-27 19:35:00,64.9,47.9,29.92,ESE,111,4.0,7.0,54,0.00,,,0.00,46,Wunderground v.1.15,2013-04-28 00:35:00,
2013-04-27 19:36:00,64.7,47.7,29.92,ESE,103,4.0,7.0,54,0.00,,,0.00,42,Wunderground v.1.15,2013-04-28 00:36:00,
2013-04-27 19:37:00,64.7,47.7,29.92,ESE,104,3.0,7.0,54,0.00,,,0.00,42,Wunderground v.1.15,2013-04-28 00:37:00,
2013-04-27 19:40:00,64.6,48.1,29.92,ESE,106,4.0,7.0,55,0.00,,,0.00,37,Wunderground v.1.15,2013-04-28 00:40:00,
2013-04-27 19:41:00,64.5,48.0,29.92,ESE,106,2.0,4.0,55,0.00,,,0.00,35,Wunderground v.1.15,2013-04-28 00:41:00,
2013-04-27 19:42:00,64.4,47.9,29.92,ESE,106,2.0,4.0,55,0.00,,,0.00,33,Wunderground v.1.15,2013-04-28 00:42:00,
2013-04-27 19:44:00,64.2,47.7,29.92,ESE,106,0.0,4.0,55,0.00,,,0.00,30,Wunderground v.1.15,2013-04-28 00:44:00,
2013-04-27 19:45:00,64.0,47.5,29.92,ESE,106,2.0,4.0,55,0.00,,,0.00,30,Wunderground v.1.15,2013-04-28 00:45:00,
2013-04-27 19:47:00,63.9,47.4,29.92,ESE,106,2.0,4.0,55,0.00,,,0.00,26,Wunderground v.1.15,2013-04-28 00:47:00,
2013-04-27 19:49:00,64.0,47.5,29.92,ESE,106,2.0,4.0,55,0.00,,,0.00,25,Wunderground v.1.15,2013-04-28 00:49:00,
2013-04-27 19:50:00,64.0,47.5,29.92,ESE,106,0.0,4.0,55,0.00,,,0.00,25,Wunderground v.1.15,2013-04-28 00:50:00,
2013-04-27 19:52:00,63.7,47.7,29.92,ESE,106,2.0,3.0,56,0.00,,,0.00,21,Wunderground v.1.15,2013-04-28 00:52:00,
2013-04-27 19:54:00,63.5,47.5,29.92,ESE,106,1.0,3.0,56,0.00,,,0.00,19,Wunderground v.1.15,2013-04-28 00:54:00,
2013-04-27 19:55:00,63.4,47.4,29.92,ESE,106,0.0,3.0,56,0.00,,,0.00,18,Wunderground v.1.15,2013-04-28 00:55:00,
2013-04-27 20:00:00,63.2,47.2,29.92,ESE,106,4.0,4.0,56,0.00,,,0.00,12,Wunderground v.1.15,2013-04-28 01:00:00,
2013-04-27 20:01:00,63.2,47.2,29.92,ESE,106,2.0,3.0,56,0.00,,,0.00,12,Wunderground v.1.15,2013-04-28 01:01:00,
2013-04-27 20:02:00,63.1,47.6,29.92,ESE,106,0.0,3.0,57,0.00,,,0.00,11,Wunderground v.1.15,2013-04-28 01:02:00,
2013-04-27 20:05:00,62.8,47.8,29.92,ESE,106,2.0,3.0,58,0.00,,,0.00,9,Wunderground v.1.15,2013-04-28 01:05:00,
2013-04-27 20:06:00,62.8,47.3,29.92,ESE,106,2.0,4.0,57,0.00,,,0.00,7,Wunderground v.1.15,2013-04-28 01:06:00,
2013-04-27 20:07:00,62.7,47.7,29.92,ESE,106,1.0,4.0,58,0.00,,,0.00,7,Wunderground v.1.15,2013-04-28 01:07:00,
2013-04-27 20:10:00,62.2,46.8,29.92,ESE,106,2.0,2.0,57,0.00,,,0.00,5,Wunderground v.1.15,2013-04-28 01:10:00,
2013-04-27 20:13:00,61.7,46.8,29.92,ESE,106,2.0,2.0,58,0.00,,,0.00,0,Wunderground v.1.15,2013-04-28 01:13:00,
2013-04-27 20:16:00,61.3,46.8,29.92,ESE,106,0.0,2.0,59,0.00,,,0.00,0,Wunderground v.1.15,2013-04-28 01:16:00,
2013-04-27 20:18:00,61.0,47.0,29.92,ESE,106,0.0,2.0,60,0.00,,,0.00,0,Wunderground v.1.15,2013-04-28 01:18:00,
2013-04-27 20:19:00,61.0,47.0,29.92,ESE,106,0.0,2.0,60,0.00,,,0.00,0,Wunderground v.1.15,2013-04-28 01:19:00,
2013-04-27 20:20:00,60.9,46.9,29.92,ESE,106,1.0,1.0,60,0.00,,,0.00,0,Wunderground v.1.15,2013-04-28 01:20:00,
2013-04-27 20:21:00,60.8,46.8,29.92,ESE,106,0.0,1.0,60,0.00,,,0.00,0,Wunderground v.1.15,2013-04-28 01:21:00,
2013-04-27 20:23:00,60.8,47.3,29.92,ESE,106,0.0,2.0,61,0.00,,,0.00,0,Wunderground v.1.15,2013-04-28 01:23:00,
2013-04-27 20:24:00,60.8,47.3,29.92,ESE,106,2.0,2.0,61,0.00,,,0.00,0,Wunderground v.1.15,2013-04-28 01:24:00,
2013-04-27 20:26:00,60.8,47.3,29.92,ESE,106,3.0,3.0,61,0.00,,,0.00,0,Wunderground v.1.15,2013-04-28 01:26:00,
2013-04-27 20:27:00,60.7,47.2,29.92,ESE,106,1.0,3.0,61,0.00,,,0.00,0,Wunderground v.1.15,2013-04-28 01:27:00,
2013-04-27 20:30:00,60.7,47.6,29.92,ESE,112,5.0,5.0,62,0.00,,,0.00,0,Wunderground v.1.15,2013-04-28 01:30:00,
2013-04-27 20:32:00,60.8,47.7,29.92,ESE,112,2.0,5.0,62,0.00,,,0.00,0,Wunderground v.1.15,2013-04-28 01:32:00,
2013-04-27 20:35:00,60.7,47.6,29.92,SE,132,3.0,5.0,62,0.00,,,0.00,0,Wunderground v.1.15,2013-04-28 01:35:00,
2013-04-27 20:36:00,60.7,47.6,29.92,SE,128,4.0,5.0,62,0.00,,,0.00,0,Wunderground v.1.15,2013-04-28 01:36:00,
2013-04-27 20:37:00,60.7,48.0,29.92,SE,135,5.0,7.0,63,0.00,,,0.00,0,Wunderground v.1.15,2013-04-28 01:37:00,
2013-04-27 20:38:00,60.7,48.0,29.92,SE,130,4.0,7.0,63,0.00,,,0.00,0,Wunderground v.1.15,2013-04-28 01:38:00,
2013-04-27 20:41:00,60.6,47.9,29.92,ESE,116,4.0,4.0,63,0.00,,,0.00,0,Wunderground v.1.15,2013-04-28 01:41:00,
2013-04-27 20:42:00,60.6,47.9,29.92,ESE,113,4.0,6.0,63,0.00,,,0.00,0,Wunderground v.1.15,2013-04-28 01:42:00,
2013-04-27 20:43:00,60.6,47.9,29.92,ESE,116,5.0,7.0,63,0.00,,,0.00,0,Wunderground v.1.15,2013-04-28 01:43:00,
2013-04-27 20:44:00,60.6,47.9,29.92,ESE,123,4.0,7.0,63,0.00,,,0.00,0,Wunderground v.1.15,2013-04-28 01:44:00,
2013-04-27 20:47:00,60.5,47.8,29.92,SE,125,6.0,7.0,63,0.00,,,0.00,0,Wunderground v.1.15,2013-04-28 01:47:00,
2013-04-27 20:48:00,60.5,47.8,29.92,SE,126,6.0,7.0,63,0.00,,,0.00,0,Wunderground v.1.15,2013-04-28 01:48:00,
2013-04-27 20:49:00,60.5,47.8,29.92,ESE,120,5.0,7.0,63,0.00,,,0.00,0,Wunderground v.1.15,2013-04-28 01:49:00,
2013-04-27 20:52:00,60.4,48.2,29.92,ESE,120,10.0,10.0,64,0.00,,,0.00,0,Wunderground v.1.15,2013-04-28 01:52:00,
2013-04-27 20:53:00,60.4,48.2,29.92,ESE,115,10.0,10.0,64,0.00,,,0.00,0,Wunderground v.1.15,2013-04-28 01:53:00,
2013-04-27 20:54:00,60.4,48.2,29.92,SE,131,8.0,10.0,64,0.00,,,0.00,0,Wunderground v.1.15,2013-04-28 01:54:00,
2013-04-27 20:55:00,60.3,48.1,29.93,ESE,122,11.0,11.0,64,0.00,,,0.00,0,Wunderground v.1.15,2013-04-28 01:55:00,
2013-04-27 20:56:00,60.3,48.1,29.93,SE,126,8.0,11.0,64,0.00,,,0.00,0,Wunderground v.1.15,2013-04-28 01:56:00,
2013-04-27 20:58:00,60.2,48.0,29.93,ESE,111,7.0,11.0,64,0.00,,,0.00,0,Wunderground v.1.15,2013-04-28 01:58:00,
2013-04-27 21:00:00,60.0,48.2,29.93,SE,132,7.0,12.0,65,0.00,,,0.00,0,Wunderground v.1.15,2013-04-28 02:00:00,
2013-04-27 21:01:00,59.9,48.1,29.93,SE,135,8.0,12.0,65,0.00,,,0.00,0,Wunderground v.1.15,2013-04-28 02:01:00,
2013-04-27 21:02:00,59.8,48.0,29.93,ESE,121,5.0,12.0,65,0.00,,,0.00,0,Wunderground v.1.15,2013-04-28 02:02:00,
2013-04-27 21:03:00,59.6,48.2,29.93,SE,138,12.0,12.0,66,0.00,,,0.00,0,Wunderground v.1.15,2013-04-28 02:03:00,
2013-04-27 21:04:00,59.6,48.2,29.92,SE,128,8.0,12.0,66,0.00,,,0.00,0,Wunderground v.1.15,2013-04-28 02:04:00,
2013-04-27 21:06:00,59.4,48.0,29.93,ESE,114,5.0,12.0,66,0.00,,,0.00,0,Wunderground v.1.15,2013-04-28 02:06:00,
2013-04-27 21:08:00,59.2,48.2,29.93,ESE,113,8.0,12.0,67,0.00,,,0.00,0,Wunderground v.1.15,2013-04-28 02:08:00,
2013-04-27 21:09:00,59.1,48.1,29.93,SE,130,9.0,13.0,67,0.00,,,0.00,0,Wunderground v.1.15,2013-04-28 02:09:00,
2013-04-27 21:13:00,59.0,48.1,29.93,ESE,117,11.0,15.0,67,0.00,,,0.00,0,Wunderground v.1.15,2013-04-28 02:13:00,
2013-04-27 21:14:00,58.9,48.0,29.93,ESE,115,11.0,15.0,67,0.00,,,0.00,0,Wunderground v.1.15,2013-04-28 02:14:00,
2013-04-27 21:18:00,58.4,48.3,29.93,ESE,121,8.0,15.0,69,0.00,,,0.00,0,Wunderground v.1.15,2013-04-28 02:18:00,
2013-04-27 21:19:00,58.4,48.3,29.93,SE,140,8.0,15.0,69,0.00,,,0.00,0,Wunderground v.1.15,2013-04-28 02:19:00,
2013-04-27 21:20:00,58.2,48.1,29.93,ESE,113,12.0,12.0,69,0.00,,,0.00,0,Wunderground v.1.15,2013-04-28 02:20:00,
2013-04-27 21:24:00,57.9,48.2,29.93,ESE,113,8.0,13.0,70,0.00,,,0.00,0,Wunderground v.1.15,2013-04-28 02:24:00,
2013-04-27 21:25:00,57.9,48.2,29.93,ESE,123,5.0,13.0,70,0.00,,,0.00,0,Wunderground v.1.15,2013-04-28 02:25:00,
2013-04-27 21:26:00,57.8,48.1,29.93,ESE,115,10.0,13.0,70,0.00,,,0.00,0,Wunderground v.1.15,2013-04-28 02:26:00,
2013-04-27 21:28:00,57.6,47.9,29.93,SE,143,11.0,13.0,70,0.00,,,0.00,0,Wunderground v.1.15,2013-04-28 02:28:00,
2013-04-27 21:29:00,57.5,48.2,29.93,ESE,111,9.0,13.0,71,0.00,,,0.00,0,Wunderground v.1.15,2013-04-28 02:29:00,
2013-04-27 21:31:00,57.3,48.0,29.93,ESE,121,8.0,11.0,71,0.00,,,0.00,0,Wunderground v.1.15,2013-04-28 02:31:00,
2013-04-27 21:32:00,57.3,48.0,29.93,SE,134,10.0,11.0,71,0.00,,,0.00,0,Wunderground v.1.15,2013-04-28 02:32:00,
2013-04-27 21:34:00,57.1,47.8,29.93,ESE,122,9.0,11.0,71,0.00,,,0.00,0,Wunderground v.1.15,2013-04-28 02:34:00,
2013-04-27 21:36:00,57.0,47.7,29.93,ESE,119,7.0,11.0,71,0.00,,,0.00,0,Wunderground v.1.15,2013-04-28 02:36:00,
2013-04-27 21:37:00,56.9,48.0,29.93,ESE,114,9.0,11.0,72,0.00,,,0.00,0,Wunderground v.1.15,2013-04-28 02:37:00,
2013-04-27 21:38:00,56.8,47.9,29.93,ESE,121,9.0,11.0,72,0.00,,,0.00,0,Wunderground v.1.15,2013-04-28 02:38:00,
2013-04-27 21:41:00,56.7,47.8,29.93,SE,126,9.0,13.0,72,0.00,,,0.00,0,Wunderground v.1.15,2013-04-28 02:41:00,
2013-04-27 21:42:00,56.7,47.8,29.93,ESE,121,10.0,13.0,72,0.00,,,0.00,0,Wunderground v.1.15,2013-04-28 02:42:00,
2013-04-27 21:43:00,56.6,47.7,29.93,ESE,115,13.0,13.0,72,0.00,,,0.00,0,Wunderground v.1.15,2013-04-28 02:43:00,
2013-04-27 21:44:00,56.6,47.7,29.93,SE,126,9.0,13.0,72,0.00,,,0.00,0,Wunderground v.1.15,2013-04-28 02:44:00,
2013-04-27 21:45:00,56.5,47.9,29.93,SE,130,6.0,13.0,73,0.00,,,0.00,0,Wunderground v.1.15,2013-04-28 02:45:00,
2013-04-27 21:47:00,56.3,47.8,29.93,SE,129,7.0,13.0,73,0.00,,,0.00,0,Wunderground v.1.15,2013-04-28 02:47:00,
2013-04-27 21:48:00,56.2,47.7,29.94,SE,129,11.0,13.0,73,0.00,,,0.00,0,Wunderground v.1.15,2013-04-28 02:48:00,
2013-04-27 21:49:00,56.2,48.0,29.93,ESE,112,12.0,13.0,74,0.00,,,0.00,0,Wunderground v.1.15,2013-04-28 02:49:00,
2013-04-27 21:51:00,56.1,47.9,29.93,ESE,123,9.0,10.0,74,0.00,,,0.00,0,Wunderground v.1.15,2013-04-28 02:51:00,
2013-04-27 21:52:00,56.1,47.9,29.93,ESE,119,11.0,11.0,74,0.00,,,0.00,0,Wunderground v.1.15,2013-04-28 02:52:00,
2013-04-27 21:54:00,56.0,47.8,29.93,ESE,121,10.0,11.0,74,0.00,,,0.00,0,Wunderground v.1.15,2013-04-28 02:54:00,
2013-04-27 21:56:00,55.9,47.7,29.93,SE,128,7.0,11.0,74,0.00,,,0.00,0,Wunderground v.1.15,2013-04-28 02:56:00,
2013-04-27 21:59:00,55.8,47.6,29.93,SE,142,8.0,11.0,74,0.00,,,0.00,0,Wunderground v.1.15,2013-04-28 02:59:00,
2013-04-27 22:00:00,55.7,47.9,29.93,SE,146,9.0,9.0,75,0.00,,,0.00,0,Wunderground v.1.15,2013-04-28 03:00:00,
2013-04-27 22:02:00,55.7,47.9,29.93,SE,138,9.0,11.0,75,0.00,,,0.00,0,Wunderground v.1.15,2013-04-28 03:02:00,
2013-04-27 22:04:00,55.7,47.9,29.94,SE,136,10.0,11.0,75,0.00,,,0.00,0,Wunderground v.1.15,2013-04-28 03:04:00,
2013-04-27 22:05:00,55.6,47.8,29.93,ESE,123,11.0,11.0,75,0.00,,,0.00,0,Wunderground v.1.15,2013-04-28 03:05:00,
2013-04-27 22:06:00,55.6,47.8,29.94,SE,133,7.0,11.0,75,0.00,,,0.00,0,Wunderground v.1.15,2013-04-28 03:06:00,
2013-04-27 22:07:00,55.5,47.7,29.93,ESE,114,9.0,11.0,75,0.00,,,0.00,0,Wunderground v.1.15,2013-04-28 03:07:00,
2013-04-27 22:09:00,55.5,47.7,29.94,ESE,119,10.0,11.0,75,0.00,,,0.00,0,Wunderground v.1.15,2013-04-28 03:09:00,
2013-04-27 22:10:00,55.4,47.6,29.94,SE,125,5.0,11.0,75,0.00,,,0.00,0,Wunderground v.1.15,2013-04-28 03:10:00,
2013-04-27 22:11:00,55.4,47.6,29.94,SE,126,7.0,8.0,75,0.00,,,0.00,0,Wunderground v.1.15,2013-04-28 03:11:00,
2013-04-27 22:13:00,55.3,47.9,29.93,SE,130,9.0,10.0,76,0.00,,,0.00,0,Wunderground v.1.15,2013-04-28 03:13:00,
2013-04-27 22:16:00,55.1,47.7,29.93,SE,132,8.0,11.0,76,0.00,,,0.00,0,Wunderground v.1.15,2013-04-28 03:16:00,
2013-04-27 22:17:00,55.0,47.6,29.93,ESE,115,8.0,11.0,76,0.00,,,0.00,0,Wunderground v.1.15,2013-04-28 03:17:00,
2013-04-27 22:18:00,55.0,47.6,29.93,ESE,111,8.0,11.0,76,0.00,,,0.00,0,Wunderground v.1.15,2013-04-28 03:18:00,
2013-04-27 22:22:00,54.9,47.5,29.93,SE,135,11.0,11.0,76,0.00,,,0.00,0,Wunderground v.1.15,2013-04-28 03:22:00,
2013-04-27 22:23:00,54.9,47.5,29.93,SE,135,9.0,12.0,76,0.00,,,0.00,0,Wunderground v.1.15,2013-04-28 03:23:00,
2013-04-27 22:24:00,54.8,47.7,29.93,SE,139,4.0,12.0,77,0.00,,,0.00,0,Wunderground v.1.15,2013-04-28 03:24:00,
2013-04-27 22:27:00,54.6,47.5,29.93,SE,137,7.0,12.0,77,0.00,,,0.00,0,Wunderground v.1.15,2013-04-28 03:27:00,
2013-04-27 22:28:00,54.6,47.5,29.93,SE,135,5.0,12.0,77,0.00,,,0.00,0,Wunderground v.1.15,2013-04-28 03:28:00,
2013-04-27 22:29:00,54.6,47.5,29.93,ESE,117,7.0,12.0,77,0.00,,,0.00,0,Wunderground v.1.15,2013-04-28 03:29:00,
2013-04-27 22:30:00,54.6,47.5,29.94,SE,134,4.0,12.0,77,0.00,,,0.00,0,Wunderground v.1.15,2013-04-28 03:30:00,
2013-04-27 22:33:00,54.5,47.4,29.93,ESE,115,11.0,11.0,77,0.00,,,0.00,0,Wunderground v.1.15,2013-04-28 03:33:00,
2013-04-27 22:35:00,54.5,47.4,29.94,SE,136,7.0,11.0,77,0.00,,,0.00,0,Wunderground v.1.15,2013-04-28 03:35:00,
2013-04-27 22:36:00,54.4,47.3,29.94,SE,130,6.0,11.0,77,0.00,,,0.00,0,Wunderground v.1.15,2013-04-28 03:36:00,
2013-04-27 22:40:00,54.3,47.2,29.94,SE,132,5.0,7.0,77,0.00,,,0.00,0,Wunderground v.1.15,2013-04-28 03:40:00,
2013-04-27 22:41:00,54.3,47.2,29.94,SE,135,5.0,7.0,77,0.00,,,0.00,0,Wunderground v.1.15,2013-04-28 03:41:00,
2013-04-27 22:42:00,54.2,47.1,29.94,SSE,153,5.0,9.0,77,0.00,,,0.00,0,Wunderground v.1.15,2013-04-28 03:42:00,
2013-04-27 22:44:00,54.1,47.0,29.94,SE,132,5.0,9.0,77,0.00,,,0.00,0,Wunderground v.1.15,2013-04-28 03:44:00,
2013-04-27 22:46:00,54.1,47.4,29.94,SE,133,10.0,10.0,78,0.00,,,0.00,0,Wunderground v.1.15,2013-04-28 03:46:00,
2013-04-27 22:47:00,54.1,47.4,29.94,SSE,153,8.0,10.0,78,0.00,,,0.00,0,Wunderground v.1.15,2013-04-28 03:47:00,
2013-04-27 22:48:00,54.0,47.3,29.94,SE,132,7.0,10.0,78,0.00,,,0.00,0,Wunderground v.1.15,2013-04-28 03:48:00,
2013-04-27 22:50:00,54.0,47.0,29.94,SSE,147,5.0,10.0,77,0.00,,,0.00,0,Wunderground v.1.15,2013-04-28 03:50:00,
2013-04-27 22:51:00,53.9,47.2,29.94,SE,134,6.0,9.0,78,0.00,,,0.00,0,Wunderground v.1.15,2013-04-28 03:51:00,
2013-04-27 22:52:00,53.8,47.1,29.94,SE,139,5.0,9.0,78,0.00,,,0.00,0,Wunderground v.1.15,2013-04-28 03:52:00,
2013-04-27 22:53:00,53.7,47.0,29.94,SSE,149,8.0,9.0,78,0.00,,,0.00,0,Wunderground v.1.15,2013-04-28 03:53:00,
2013-04-27 22:56:00,53.7,47.0,29.94,SSE,149,8.0,9.0,78,0.00,,,0.00,0,Wunderground v.1.15,2013-04-28 03:56:00,
2013-04-27 22:57:00,53.6,46.9,29.94,SE,128,8.0,10.0,78,0.00,,,0.00,0,Wunderground v.1.15,2013-04-28 03:57:00,
2013-04-27 22:58:00,53.6,46.9,29.94,SSE,147,8.0,10.0,78,0.00,,,0.00,0,Wunderground v.1.15,2013-04-28 03:58:00,
2013-04-27 22:59:00,53.6,47.2,29.94,SE,135,8.0,10.0,79,0.00,,,0.00,0,Wunderground v.1.15,2013-04-28 03:59:00,
2013-04-27 23:00:00,53.5,46.8,29.94,SE,132,7.0,8.0,78,0.00,,,0.00,0,Wunderground v.1.15,2013-04-28 04:00:00,
2013-04-27 23:01:00,53.5,46.8,29.94,SE,140,9.0,9.0,78,0.00,,,0.00,0,Wunderground v.1.15,2013-04-28 04:01:00,
2013-04-27 23:02:00,53.5,47.1,29.93,SE,134,9.0,9.0,79,0.00,,,0.00,0,Wunderground v.1.15,2013-04-28 04:02:00,
2013-04-27 23:04:00,53.5,47.1,29.93,SE,136,7.0,10.0,79,0.00,,,0.00,0,Wunderground v.1.15,2013-04-28 04:04:00,
2013-04-27 23:07:00,53.4,47.0,29.93,SE,138,10.0,11.0,79,0.00,,,0.00,0,Wunderground v.1.15,2013-04-28 04:07:00,
2013-04-27 23:09:00,53.4,47.0,29.93,SE,145,9.0,11.0,79,0.00,,,0.00,0,Wunderground v.1.15,2013-04-28 04:09:00,
2013-04-27 23:10:00,53.3,47.0,29.93,SE,138,7.0,11.0,79,0.00,,,0.00,0,Wunderground v.1.15,2013-04-28 04:10:00,
2013-04-27 23:13:00,53.2,46.9,29.93,SSE,148,7.0,11.0,79,0.00,,,0.00,0,Wunderground v.1.15,2013-04-28 04:13:00,
2013-04-27 23:14:00,53.2,46.9,29.93,SE,141,6.0,11.0,79,0.00,,,0.00,0,Wunderground v.1.15,2013-04-28 04:14:00,
2013-04-27 23:15:00,53.2,46.9,29.94,SSE,147,7.0,11.0,79,0.00,,,0.00,0,Wunderground v.1.15,2013-04-28 04:15:00,
2013-04-27 23:17:00,53.0,46.7,29.94,SSE,148,7.0,11.0,79,0.00,,,0.00,0,Wunderground v.1.15,2013-04-28 04:17:00,
2013-04-27 23:19:00,53.0,47.0,29.93,SE,144,6.0,11.0,80,0.00,,,0.00,0,Wunderground v.1.15,2013-04-28 04:19:00,
2013-04-27 23:21:00,52.8,46.8,29.93,SE,139,3.0,6.0,80,0.00,,,0.00,0,Wunderground v.1.15,2013-04-28 04:21:00,
2013-04-27 23:22:00,52.6,46.6,29.93,SE,136,5.0,7.0,80,0.00,,,0.00,0,Wunderground v.1.15,2013-04-28 04:22:00,
2013-04-27 23:24:00,52.5,46.5,29.93,SSE,148,6.0,7.0,80,0.00,,,0.00,0,Wunderground v.1.15,2013-04-28 04:24:00,
2013-04-27 23:25:00,52.4,46.7,29.94,SSE,149,8.0,8.0,81,0.00,,,0.00,0,Wunderground v.1.15,2013-04-28 04:25:00,
2013-04-27 23:27:00,52.4,46.7,29.94,SE,138,4.0,8.0,81,0.00,,,0.00,0,Wunderground v.1.15,2013-04-28 04:27:00,
2013-04-27 23:28:00,52.4,46.7,29.94,SE,143,5.0,8.0,81,0.00,,,0.00,0,Wunderground v.1.15,2013-04-28 04:28:00,
2013-04-27 23:29:00,52.3,46.6,29.94,SE,136,4.0,8.0,81,0.00,,,0.00,0,Wunderground v.1.15,2013-04-28 04:29:00,
2013-04-27 23:30:00,52.3,46.6,29.94,SE,146,4.0,5.0,81,0.00,,,0.00,0,Wunderground v.1.15,2013-04-28 04:30:00,
2013-04-27 23:32:00,52.1,46.4,29.94,SE,146,4.0,5.0,81,0.00,,,0.00,0,Wunderground v.1.15,2013-04-28 04:32:00,
2013-04-27 23:33:00,52.0,46.3,29.94,SE,144,7.0,7.0,81,0.00,,,0.00,0,Wunderground v.1.15,2013-04-28 04:33:00,
2013-04-27 23:34:00,51.9,46.6,29.94,SE,142,5.0,7.0,82,0.00,,,0.00,0,Wunderground v.1.15,2013-04-28 04:34:00,
2013-04-27 23:35:00,51.9,46.6,29.94,SE,140,4.0,7.0,82,0.00,,,0.00,0,Wunderground v.1.15,2013-04-28 04:35:00,
2013-04-27 23:37:00,51.9,46.6,29.93,SE,143,6.0,7.0,82,0.00,,,0.00,0,Wunderground v.1.15,2013-04-28 04:37:00,
2013-04-27 23:38:00,51.8,46.5,29.94,SE,144,6.0,7.0,82,0.00,,,0.00,0,Wunderground v.1.15,2013-04-28 04:38:00,
2013-04-27 23:40:00,51.8,46.5,29.93,SE,143,7.0,8.0,82,0.00,,,0.00,0,Wunderground v.1.15,2013-04-28 04:40:00,
2013-04-27 23:43:00,51.8,46.5,29.93,SE,146,5.0,9.0,82,0.00,,,0.00,0,Wunderground v.1.15,2013-04-28 04:43:00,
2013-04-27 23:44:00,51.8,46.5,29.93,SSE,148,4.0,9.0,82,0.00,,,0.00,0,Wunderground v.1.15,2013-04-28 04:44:00,
2013-04-27 23:45:00,51.8,46.5,29.93,SSE,158,5.0,9.0,82,0.00,,,0.00,0,Wunderground v.1.15,2013-04-28 04:45:00,
2013-04-27 23:46:00,51.8,46.5,29.93,SSE,159,4.0,9.0,82,0.00,,,0.00,0,Wunderground v.1.15,2013-04-28 04:46:00,
2013-04-27 23:48:00,51.7,46.4,29.93,SSE,158,3.0,9.0,82,0.00,,,0.00,0,Wunderground v.1.15,2013-04-28 04:48:00,
2013-04-27 23:50:00,51.6,46.3,29.93,SSE,153,6.0,6.0,82,0.00,,,0.00,0,Wunderground v.1.15,2013-04-28 04:50:00,
2013-04-27 23:51:00,51.6,46.6,29.93,SSE,156,4.0,6.0,83,0.00,,,0.00,0,Wunderground v.1.15,2013-04-28 04:51:00,
2013-04-27 23:53:00,51.5,46.5,29.93,SSE,156,6.0,7.0,83,0.00,,,0.00,0,Wunderground v.1.15,2013-04-28 04:53:00,
2013-04-27 23:54:00,51.5,46.5,29.93,SSE,152,7.0,7.0,83,0.00,,,0.00,0,Wunderground v.1.15,2013-04-28 04:54:00,
2013-04-27 23:56:00,51.5,46.5,29.93,SSE,158,4.0,7.0,83,0.00,,,0.00,0,Wunderground v.1.15,2013-04-28 04:56:00,
2013-04-27 23:57:00,51.5,46.5,29.93,SSE,155,6.0,7.0,83,0.00,,,0.00,0,Wunderground v.1.15,2013-04-28 04:57:00,
2013-04-27 23:59:00,51.4,46.4,29.93,SSE,148,7.0,7.0,83,0.00,,,0.00,0,Wunderground v.1.15,2013-04-28 04:59:00,